Latitude: N 50° 09' 49" Longitude: W 05° 11' 53" Elevation: 168m ASL

There are 11 visitors online

Adverts

<- Previous Day | Today | Next Day ->

All Data for 11 June 2019

Time
A - D
Temp
A - D
Dew Point
A - D
Humidity
A - D
Pressure
A - D
Wind
A - D
Wind Dir Gust
A - D
Rain Rate
A - D
Rain Total
00:00 11.6 8.5 81 1017.0 9.8 N 11.4 0.0 0.0
00:01 11.6 8.5 81 1016.9 9.8 N 11.4 0.0 0.0
00:02 11.6 8.5 81 1017.0 9.8 N 11.4 0.0 0.0
00:03 11.6 8.5 81 1016.9 9.8 N 11.4 0.0 0.0
00:04 11.6 8.5 81 1017.0 9.8 N 11.4 0.0 0.0
00:05 11.6 8.5 81 1017.0 9.8 N 11.4 0.0 0.0
00:06 11.7 8.6 81 1016.8 6.9 SW 11.4 0.0 0.0
00:07 11.7 8.6 81 1016.8 6.9 SW 11.4 0.0 0.0
00:08 11.7 8.6 81 1016.7 6.9 SW 10.7 0.0 0.0
00:09 11.7 8.6 81 1016.7 5.4 WNW 10.7 0.0 0.0
00:10 11.7 8.6 81 1016.8 11.4 NW 11.4 0.0 0.0
00:11 11.7 8.6 81 1016.8 8.3 W 11.4 0.0 0.0
00:12 11.7 8.6 81 1016.7 11.4 WNW 11.4 0.0 0.0
00:13 11.7 8.6 81 1016.8 7.6 NE 11.4 0.0 0.0
00:14 11.7 8.6 81 1016.6 7.6 NE 11.4 0.0 0.0
00:15 11.7 8.6 81 1016.6 7.6 NE 11.4 0.0 0.0
00:16 11.7 8.6 81 1016.7 2.2 N 11.4 0.0 0.0
00:17 11.7 8.6 81 1016.7 8.3 N 11.4 0.0 0.0
00:18 11.7 8.6 81 1016.6 4.5 NE 11.4 0.0 0.0
00:20 11.7 8.6 81 1016.5 3.8 N 11.4 0.0 0.0
00:21 11.7 8.6 81 1016.8 7.6 WNW 11.4 0.0 0.0
00:22 11.7 8.6 81 1016.5 6.9 N 10.7 0.0 0.0
00:23 11.8 8.6 81 1016.5 6.9 N 10.7 0.0 0.0
00:24 11.7 8.6 81 1016.6 5.4 E 10.7 0.0 0.0
00:25 11.7 8.6 81 1016.5 6.0 W 10.7 0.0 0.0
00:26 11.7 8.6 81 1016.6 6.0 NW 10.7 0.0 0.0
00:27 11.7 8.6 81 1016.4 8.3 SE 10.7 0.0 0.0
00:28 11.7 8.6 81 1016.4 8.3 SE 10.7 0.0 0.0
00:29 11.8 8.6 81 1016.6 6.9 NW 10.7 0.0 0.0
00:30 11.7 8.6 81 1016.5 7.6 NW 10.7 0.0 0.0
00:31 11.8 8.6 81 1016.6 6.9 NW 10.7 0.0 0.0
00:32 11.8 8.8 82 1016.5 4.5 NW 10.7 0.0 0.0
00:33 11.8 8.6 81 1016.7 4.5 NW 10.7 0.0 0.0
00:34 11.8 8.6 81 1016.5 7.6 NW 10.7 0.0 0.0
00:35 11.8 8.6 81 1016.6 6.9 NW 10.7 0.0 0.0
00:36 11.8 8.6 81 1016.5 5.4 WNW 10.7 0.0 0.0
00:37 11.8 8.6 81 1016.4 9.8 S 10.7 0.0 0.0
00:38 11.8 8.8 82 1016.6 7.6 N 9.8 0.0 0.0
00:39 11.8 8.8 82 1016.5 7.6 WNW 9.8 0.0 0.0
00:41 11.8 8.8 82 1016.4 8.3 W 9.8 0.0 0.0
00:42 11.8 8.8 82 1016.5 6.9 NE 9.8 0.0 0.0
00:43 11.8 8.8 82 1016.5 9.2 N 9.8 0.0 0.0
00:44 11.8 8.8 82 1016.5 12.1 N 12.1 0.0 0.0
00:45 11.8 8.8 82 1016.6 10.7 N 12.1 0.0 0.0
00:46 11.8 8.8 82 1016.5 10.7 ENE 12.1 0.0 0.0
00:47 11.8 8.8 82 1016.3 9.8 NNW 12.1 0.0 0.0
00:48 11.8 8.8 82 1016.3 9.8 NNW 12.1 0.0 0.0
00:49 11.8 8.8 82 1016.5 6.9 N 12.1 0.0 0.0
00:50 11.8 8.8 82 1016.3 9.2 WNW 12.1 0.0 0.0
00:51 11.8 8.8 82 1016.5 6.0 SW 12.1 0.0 0.0
00:52 11.8 8.8 82 1016.4 6.9 NW 12.1 0.0 0.0
00:53 11.8 8.8 82 1016.4 6.0 NE 12.1 0.0 0.0
00:54 11.8 8.8 82 1016.5 6.0 NW 12.1 0.0 0.0
00:55 11.8 8.8 82 1016.4 6.0 N 10.7 0.0 0.0
00:56 11.8 8.8 82 1016.4 10.7 N 10.7 0.0 0.0
00:57 11.8 8.8 82 1016.4 11.4 NW 11.4 0.0 0.0
00:58 11.8 8.8 82 1016.5 5.4 NW 11.4 0.0 0.0
00:59 11.8 8.8 82 1016.6 6.0 NW 11.4 0.0 0.0
01:00 11.8 8.8 82 1016.3 6.0 NW 11.4 0.0 0.0
01:01 11.8 8.8 82 1016.3 6.0 NW 11.4 0.0 0.0
01:02 11.8 8.8 82 1016.4 6.0 NW 11.4 0.0 0.0
01:04 11.8 8.8 82 1016.4 6.0 NW 11.4 0.0 0.0
01:05 11.8 8.8 82 1016.3 6.0 NW 11.4 0.0 0.0
01:06 11.8 8.8 82 1016.3 6.0 N 11.4 0.0 0.0
01:07 11.8 8.8 82 1016.3 6.0 NW 8.3 0.0 0.0
01:08 11.8 8.8 82 1016.2 10.7 NW 10.7 0.0 0.0
01:09 11.8 8.8 82 1016.2 11.4 NW 11.4 0.0 0.0
01:10 11.8 8.8 82 1016.3 9.2 NW 11.4 0.0 0.0
01:11 11.8 8.8 82 1016.2 5.4 N 11.4 0.0 0.0
01:12 11.8 8.8 82 1016.3 4.5 N 11.4 0.0 0.0
01:13 11.8 8.8 82 1016.2 8.3 E 11.4 0.0 0.0
01:14 11.8 8.8 82 1016.2 5.4 NW 11.4 0.0 0.0
01:15 11.8 8.6 81 1016.3 6.0 NW 11.4 0.0 0.0
01:16 11.7 8.7 82 1016.1 7.6 NW 11.4 0.0 0.0
01:17 11.7 8.6 81 1016.1 4.5 WNW 11.4 0.0 0.0
01:18 11.7 8.6 81 1016.1 13.6 S 13.6 0.0 0.0
01:19 11.7 8.6 81 1016.1 5.4 N 13.6 0.0 0.0
01:20 11.7 8.6 81 1016.0 5.4 NW 13.6 0.0 0.0
01:21 11.7 8.6 81 1016.1 5.4 NW 13.6 0.0 0.0
01:22 11.7 8.6 81 1016.1 6.9 NW 13.6 0.0 0.0
01:23 11.7 8.6 81 1016.1 5.4 W 13.6 0.0 0.0
01:24 11.7 8.6 81 1016.0 6.9 N 13.6 0.0 0.0
01:25 11.7 8.6 81 1016.0 8.3 NW 13.6 0.0 0.0
01:26 11.7 8.6 81 1016.0 4.5 NE 13.6 0.0 0.0
01:28 11.7 8.6 81 1016.1 11.4 NW 11.4 0.0 0.0
01:29 11.7 8.6 81 1016.1 14.5 N 14.5 0.0 0.0
01:30 11.7 8.6 81 1016.0 6.9 NW 14.5 0.0 0.0
01:31 11.6 8.5 81 1015.9 8.3 SW 14.5 0.0 0.0
01:32 11.6 8.5 81 1016.0 8.3 SW 14.5 0.0 0.0
01:33 11.6 8.3 80 1016.0 8.3 NNE 14.5 0.0 0.0
01:34 11.7 8.4 80 1016.0 4.5 NNE 14.5 0.0 0.0
01:35 11.7 8.4 80 1016.0 11.4 N 14.5 0.0 0.0
01:36 11.6 8.3 80 1016.0 6.0 NW 14.5 0.0 0.0
01:37 11.6 8.3 80 1016.0 6.0 W 14.5 0.0 0.0
01:38 11.6 8.3 80 1016.0 7.6 NW 14.5 0.0 0.0
01:39 11.6 8.3 80 1016.0 6.0 NW 14.5 0.0 0.0
01:40 11.6 8.3 80 1016.0 3.8 NW 11.4 0.0 0.0
01:41 11.6 8.3 80 1015.9 6.9 N 11.4 0.0 0.0
01:42 11.6 8.3 80 1016.0 11.4 NW 11.4 0.0 0.0
01:43 11.6 8.3 80 1016.0 9.2 NW 11.4 0.0 0.0
01:44 11.6 8.3 80 1015.8 9.2 NW 11.4 0.0 0.0
01:46 11.6 8.3 80 1015.9 7.6 NW 11.4 0.0 0.0
01:47 11.6 8.3 80 1015.9 10.7 WNW 11.4 0.0 0.0
01:48 11.6 8.3 80 1016.0 10.7 NW 11.4 0.0 0.0
01:49 11.6 8.3 80 1015.8 10.7 NW 11.4 0.0 0.0
01:50 11.6 8.3 80 1015.8 10.7 NW 11.4 0.0 0.0
01:51 11.6 8.3 80 1015.8 10.7 NW 11.4 0.0 0.0
01:52 11.6 8.3 80 1015.8 8.3 NW 10.7 0.0 0.0
01:53 11.6 8.3 80 1015.8 4.5 E 10.7 0.0 0.0
01:54 11.6 8.3 80 1015.8 4.5 E 10.7 0.0 0.0
01:55 11.6 8.3 80 1015.8 7.6 N 10.7 0.0 0.0
01:56 11.6 8.3 80 1015.7 8.3 NW 10.7 0.0 0.0
01:57 11.6 8.3 80 1015.7 10.7 NW 10.7 0.0 0.0
01:58 11.6 8.3 80 1015.9 9.8 N 10.7 0.0 0.0
01:59 11.6 8.3 80 1015.7 9.8 N 10.7 0.0 0.0
02:00 11.7 8.4 80 1015.8 9.8 WNW 10.7 0.0 0.0
02:01 11.7 8.4 80 1015.8 9.8 WNW 10.7 0.0 0.0
02:02 11.7 8.4 80 1015.7 9.8 WNW 10.7 0.0 0.0
02:03 11.7 8.4 80 1015.9 9.8 WNW 10.7 0.0 0.0
02:05 11.7 8.4 80 1015.8 9.8 WNW 10.7 0.0 0.0
02:06 11.7 8.4 80 1015.8 11.4 WNW 11.4 0.0 0.0
02:07 11.7 8.4 80 1015.7 12.1 NW 12.1 0.0 0.0
02:08 11.7 8.4 80 1015.8 9.8 NW 12.1 0.0 0.0
02:09 11.7 8.4 80 1015.8 9.2 NW 12.1 0.0 0.0
02:10 11.8 8.5 80 1015.8 7.6 N 12.1 0.0 0.0
02:11 11.8 8.5 80 1015.7 11.4 N 12.1 0.0 0.0
02:12 11.8 8.5 80 1015.7 11.4 N 12.1 0.0 0.0
02:13 11.7 8.4 80 1015.7 9.2 NE 12.1 0.0 0.0
02:14 11.8 8.5 80 1015.7 7.6 NW 12.1 0.0 0.0
02:15 11.8 8.5 80 1015.7 9.8 E 12.1 0.0 0.0
02:16 11.8 8.5 80 1015.6 9.8 E 12.1 0.0 0.0
02:17 11.8 8.5 80 1015.8 8.3 NW 12.1 0.0 0.0
02:18 11.8 8.5 80 1015.7 6.9 N 11.4 0.0 0.0
02:19 11.8 8.5 80 1015.8 7.6 WNW 11.4 0.0 0.0
02:20 11.8 8.5 80 1015.6 10.7 E 11.4 0.0 0.0
02:21 11.8 8.5 80 1015.8 10.7 NW 11.4 0.0 0.0
02:23 11.8 8.5 80 1015.7 12.1 NW 12.1 0.0 0.0
02:24 11.8 8.5 80 1015.5 13.0 SE 13.0 0.0 0.0
02:25 11.8 8.5 80 1015.6 13.0 SE 13.0 0.0 0.0
02:26 11.8 8.5 80 1015.6 15.2 W 15.2 0.0 0.0
02:27 11.8 8.5 80 1015.6 6.9 NE 15.2 0.0 0.0
02:28 11.8 8.5 80 1015.7 8.3 N 15.2 0.0 0.0
02:29 11.8 8.5 80 1015.6 8.3 W 15.2 0.0 0.0
02:30 11.8 8.5 80 1015.5 8.3 W 15.2 0.0 0.0
02:31 11.8 8.5 80 1015.6 10.7 SE 15.2 0.0 0.0
02:32 11.8 8.5 80 1015.7 7.6 NW 15.2 0.0 0.0
02:33 11.8 8.5 80 1015.6 12.1 NW 15.2 0.0 0.0
02:34 11.8 8.5 80 1015.7 8.3 NW 15.2 0.0 0.0
02:35 11.8 8.5 80 1015.8 8.3 NW 15.2 0.0 0.0
02:36 11.8 8.5 80 1015.8 6.9 NW 15.2 0.0 0.0
02:37 11.8 8.5 80 1015.6 8.3 NW 15.2 0.0 0.0
02:38 11.7 8.4 80 1015.8 7.6 NW 12.1 0.0 0.0
02:39 11.7 8.4 80 1015.8 8.3 NW 12.1 0.0 0.0
02:40 11.7 8.4 80 1015.8 13.6 NW 13.6 0.0 0.0
02:42 11.6 8.1 79 1015.8 10.7 N 13.6 0.0 0.0
02:43 11.6 8.1 79 1015.9 9.2 NE 13.6 0.0 0.0
02:44 11.6 8.1 79 1015.8 9.2 NE 13.6 0.0 0.0
02:45 11.5 8.0 79 1015.8 9.8 N 13.6 0.0 0.0
02:46 11.5 8.0 79 1015.9 8.3 S 13.6 0.0 0.0
02:47 11.5 8.0 79 1015.8 9.8 N 13.6 0.0 0.0
02:48 11.4 7.9 79 1015.7 8.3 E 13.6 0.0 0.0
02:49 11.4 7.9 79 1015.7 8.3 E 13.6 0.0 0.0
02:50 11.3 7.6 78 1015.6 6.9 E 13.6 0.0 0.0
02:51 11.3 7.6 78 1015.8 10.7 NE 10.7 0.0 0.0
02:52 11.3 7.6 78 1015.7 10.7 NE 10.7 0.0 0.0
02:53 11.2 7.5 78 1015.8 6.9 NW 10.7 0.0 0.0
02:54 11.2 7.5 78 1015.7 6.9 NW 10.7 0.0 0.0
02:55 11.1 7.2 77 1015.7 6.9 NW 10.7 0.0 0.0
02:56 11.1 7.2 77 1015.6 8.3 NE 10.7 0.0 0.0
02:57 11.0 7.1 77 1015.7 7.6 W 10.7 0.0 0.0
02:58 11.0 7.1 77 1015.7 7.6 N 10.7 0.0 0.0
02:59 11.0 7.1 77 1015.7 6.9 NE 10.7 0.0 0.0
03:00 11.0 7.1 77 1015.8 6.9 NE 10.7 0.0 0.0
03:01 11.0 7.1 77 1015.6 6.9 NE 10.7 0.0 0.0
03:03 11.0 7.1 77 1015.8 6.9 NE 8.3 0.0 0.0
03:04 11.0 7.1 77 1015.7 6.9 NE 8.3 0.0 0.0
03:05 11.0 7.1 77 1015.7 6.9 NE 8.3 0.0 0.0
03:06 10.7 6.8 77 1015.7 3.8 SE 8.3 0.0 0.0
03:07 10.7 6.8 77 1015.7 5.4 ENE 7.6 0.0 0.0
03:08 10.7 6.8 77 1015.6 6.9 NW 7.6 0.0 0.0
03:09 10.7 6.8 77 1015.8 9.2 N 9.2 0.0 0.0
03:10 10.7 6.8 77 1015.7 9.8 N 9.8 0.0 0.0
03:11 10.6 6.7 77 1015.6 6.9 N 9.8 0.0 0.0
03:12 10.6 6.7 77 1015.6 14.5 SW 14.5 0.0 0.0
03:13 10.6 6.7 77 1015.7 6.9 N 14.5 0.0 0.0
03:14 10.6 6.7 77 1015.7 4.5 NE 14.5 0.0 0.0
03:15 10.6 6.7 77 1015.8 5.4 ENE 14.5 0.0 0.0
03:16 10.6 6.7 77 1015.6 3.8 NW 14.5 0.0 0.0
03:17 10.6 6.7 77 1015.7 6.9 E 14.5 0.0 0.0
03:18 10.6 6.7 77 1015.5 9.8 N 14.5 0.0 0.0
03:19 10.6 6.7 77 1015.6 6.0 SW 14.5 0.0 0.0
03:20 10.5 6.6 77 1015.7 8.3 NW 14.5 0.0 0.0
03:22 10.5 6.5 76 1015.6 8.3 NW 13.0 0.0 0.0
03:23 10.5 6.5 76 1015.7 6.0 N 13.0 0.0 0.0
03:24 10.5 6.5 76 1015.6 9.2 N 13.0 0.0 0.0
03:25 10.5 6.5 76 1015.7 9.8 NW 13.0 0.0 0.0
03:26 10.5 6.5 76 1015.6 9.2 N 13.6 0.0 0.0
03:27 10.5 6.5 76 1015.6 7.6 N 13.6 0.0 0.0
03:28 10.5 6.5 76 1015.6 7.6 N 13.6 0.0 0.0
03:29 10.5 6.5 76 1015.5 5.4 NE 13.6 0.0 0.0
03:30 10.5 6.5 76 1015.5 9.2 N 13.6 0.0 0.0
03:31 10.5 6.5 76 1015.5 11.4 N 13.6 0.0 0.0
03:32 10.5 6.5 76 1015.4 7.6 NW 13.6 0.0 0.0
03:33 10.5 6.5 76 1015.6 9.2 NW 13.6 0.0 0.0
03:34 10.5 6.5 76 1015.6 8.3 WNW 13.6 0.0 0.0
03:35 10.5 6.5 76 1015.5 9.2 ENE 13.6 0.0 0.0
03:36 10.4 6.4 76 1015.4 9.8 NW 13.6 0.0 0.0
03:37 10.4 6.4 76 1015.4 8.3 NW 11.4 0.0 0.0
03:38 10.4 6.4 76 1015.6 3.8 NW 11.4 0.0 0.0
03:39 10.4 6.2 75 1015.3 5.4 S 11.4 0.0 0.0
03:41 10.4 6.2 75 1015.5 6.0 E 11.4 0.0 0.0
03:42 10.4 6.2 75 1015.4 6.0 SE 11.4 0.0 0.0
03:43 10.4 6.2 75 1015.3 11.4 WNW 11.4 0.0 0.0
03:44 10.4 6.2 75 1015.3 7.6 NW 11.4 0.0 0.0
03:45 10.4 6.4 76 1015.4 8.3 NW 11.4 0.0 0.0
03:46 10.4 6.2 75 1015.4 10.7 E 11.4 0.0 0.0
03:47 10.4 6.2 75 1015.3 6.0 WNW 11.4 0.0 0.0
03:48 10.4 6.2 75 1015.4 8.3 NW 11.4 0.0 0.0
03:49 10.4 6.2 75 1015.4 7.6 N 11.4 0.0 0.0
03:50 10.4 6.2 75 1015.5 6.9 N 11.4 0.0 0.0
03:51 10.4 6.2 75 1015.5 5.4 N 11.4 0.0 0.0
03:52 10.4 6.2 75 1015.5 5.4 WNW 11.4 0.0 0.0
03:53 10.4 6.2 75 1015.3 12.1 NE 12.1 0.0 0.0
03:54 10.4 6.2 75 1015.5 14.5 N 14.5 0.0 0.0
03:55 10.4 6.2 75 1015.5 10.7 NE 14.5 0.0 0.0
03:56 10.5 6.3 75 1015.4 9.2 N 14.5 0.0 0.0
03:57 10.5 6.3 75 1015.5 7.6 NNE 14.5 0.0 0.0
03:58 10.5 6.3 75 1015.4 13.0 N 14.5 0.0 0.0
04:00 10.5 6.3 75 1015.3 15.2 W 15.2 0.0 0.0
04:01 10.5 6.3 75 1015.4 15.2 W 15.2 0.0 0.0
04:02 10.5 6.3 75 1015.2 9.2 NW 15.2 0.0 0.0
04:03 10.5 6.3 75 1015.5 5.4 N 15.2 0.0 0.0
04:04 10.6 6.4 75 1015.3 6.0 N 15.2 0.0 0.0
04:05 10.6 6.4 75 1015.3 3.8 NW 15.2 0.0 0.0
04:06 10.6 6.4 75 1015.3 10.7 NW 15.2 0.0 0.0
04:07 10.6 6.4 75 1015.3 11.4 WNW 15.2 0.0 0.0
04:08 10.6 6.4 75 1015.4 13.0 N 15.2 0.0 0.0
04:09 10.6 6.4 75 1015.1 12.1 NE 15.2 0.0 0.0
04:10 10.6 6.4 75 1015.3 11.4 WNW 15.2 0.0 0.0
04:11 10.6 6.2 74 1015.2 6.9 N 15.2 0.0 0.0
04:12 10.6 6.2 74 1015.3 16.8 E 16.8 0.0 0.0
04:13 10.6 6.2 74 1015.2 6.0 NW 16.8 0.0 0.0
04:14 10.6 6.2 74 1015.2 5.4 NW 16.8 0.0 0.0
04:15 10.6 6.2 74 1015.3 7.6 SW 16.8 0.0 0.0
04:16 10.6 6.2 74 1015.4 10.7 N 16.8 0.0 0.0
04:17 10.6 6.2 74 1015.2 11.4 NE 16.8 0.0 0.0
04:19 10.7 6.3 74 1015.3 9.8 W 16.8 0.0 0.0
04:20 10.7 6.3 74 1015.2 15.2 NE 16.8 0.0 0.0
04:21 10.7 6.3 74 1015.2 12.1 N 16.8 0.0 0.0
04:22 10.7 6.3 74 1015.2 10.7 N 16.8 0.0 0.0
04:23 10.7 6.3 74 1015.1 12.1 SSE 15.9 0.0 0.0
04:24 10.7 6.3 74 1015.2 18.3 N 18.3 0.0 0.0
04:25 10.6 6.2 74 1015.1 13.0 N 18.3 0.0 0.0
04:26 10.7 6.1 73 1015.2 9.2 S 18.3 0.0 0.0
04:27 10.6 6.0 73 1015.2 12.1 N 18.3 0.0 0.0
04:28 10.6 6.0 73 1015.3 15.2 N 19.0 0.0 0.0
04:29 10.6 6.0 73 1015.3 8.3 E 19.0 0.0 0.0
04:30 10.6 6.0 73 1015.1 13.6 N 19.0 0.0 0.0
04:31 10.6 6.0 73 1015.2 15.2 NW 19.0 0.0 0.0
04:32 10.6 6.0 73 1015.1 9.2 NE 19.0 0.0 0.0
04:33 10.6 6.0 73 1015.4 15.9 NW 19.0 0.0 0.0
04:34 10.6 6.0 73 1015.2 5.4 NW 19.0 0.0 0.0
04:36 10.6 6.0 73 1015.1 9.8 W 19.0 0.0 0.0
04:37 10.6 6.0 73 1015.2 18.3 NE 19.0 0.0 0.0
04:38 10.6 6.0 73 1015.3 15.2 WNW 18.3 0.0 0.0
04:39 10.6 6.0 73 1015.2 17.4 N 18.3 0.0 0.0
04:40 10.6 6.0 73 1015.3 8.3 E 18.3 0.0 0.0
04:41 10.6 6.0 73 1015.3 8.3 E 18.3 0.0 0.0
04:42 10.5 5.9 73 1015.2 7.6 SE 18.3 0.0 0.0
04:43 10.5 5.9 73 1015.2 11.4 N 18.3 0.0 0.0
04:44 10.5 5.9 73 1015.3 10.7 NW 18.3 0.0 0.0
04:45 10.5 5.9 73 1015.3 9.2 N 18.3 0.0 0.0
04:46 10.5 5.9 73 1015.3 13.6 NW 18.3 0.0 0.0
04:47 10.5 5.9 73 1015.2 10.7 NW 17.4 0.0 0.0
04:48 10.5 5.9 73 1015.2 16.8 NNW 17.4 0.0 0.0
04:50 10.4 5.8 73 1015.1 12.1 N 16.8 0.0 0.0
04:51 10.4 5.8 73 1015.1 14.5 NE 16.8 0.0 0.0
04:52 10.4 5.8 73 1015.1 8.3 NW 16.8 0.0 0.0
04:53 10.4 5.8 73 1015.3 10.7 NW 16.8 0.0 0.0
04:54 10.4 5.8 73 1015.2 11.4 N 16.8 0.0 0.0
04:55 10.4 5.8 73 1015.4 13.0 SW 16.8 0.0 0.0
04:56 10.4 5.8 73 1015.0 19.7 N 19.7 0.0 0.0
04:57 10.3 5.7 73 1015.1 12.1 S 19.7 0.0 0.0
04:58 10.4 5.8 73 1015.0 9.8 E 19.7 0.0 0.0
04:59 10.3 5.7 73 1015.3 18.3 S 19.7 0.0 0.0
05:00 10.3 5.9 74 1015.2 6.0 SW 19.7 0.0 0.0
05:01 10.3 5.9 74 1015.3 6.0 SW 19.7 0.0 0.0
05:02 10.3 5.9 74 1015.3 4.5 NE 19.7 0.0 0.0
05:03 10.3 5.9 74 1015.5 8.3 N 19.7 0.0 0.0
05:04 10.3 5.9 74 1015.3 9.8 NW 19.7 0.0 0.0
05:06 10.2 5.8 74 1015.4 10.7 NW 18.3 0.0 0.0
05:07 10.2 5.8 74 1015.4 9.2 SW 18.3 0.0 0.0
05:08 10.2 5.8 74 1015.5 13.0 W 18.3 0.0 0.0
05:09 10.2 5.8 74 1015.5 17.4 W 17.4 0.0 0.0
05:10 10.2 5.8 74 1015.5 8.3 WNW 17.4 0.0 0.0
05:11 10.2 6.0 75 1015.4 7.6 NW 17.4 0.0 0.0
05:12 10.2 6.0 75 1015.5 7.6 SE 17.4 0.0 0.0
05:13 10.2 6.0 75 1015.5 8.3 W 17.4 0.0 0.0
05:14 10.2 6.0 75 1015.4 9.8 NW 17.4 0.0 0.0
05:15 10.2 6.0 75 1015.4 13.6 SW 17.4 0.0 0.0
05:16 10.2 6.0 75 1015.5 7.6 NE 17.4 0.0 0.0
05:17 10.2 6.0 75 1015.5 6.0 W 17.4 0.0 0.0
05:18 10.2 6.0 75 1015.5 10.7 NW 19.0 0.0 0.0
05:20 10.2 6.0 75 1015.4 9.8 NW 19.0 0.0 0.0
05:21 10.2 6.2 76 1015.4 8.3 N 19.0 0.0 0.0
05:22 10.2 6.2 76 1015.4 8.3 NE 19.0 0.0 0.0
05:23 10.2 6.2 76 1015.4 16.8 N 19.0 0.0 0.0
05:24 10.2 6.2 76 1015.4 16.8 NE 19.0 0.0 0.0
05:25 10.2 6.2 76 1015.4 9.8 N 19.0 0.0 0.0
05:26 10.2 6.2 76 1015.3 13.0 NW 19.0 0.0 0.0
05:27 10.2 6.2 76 1015.3 8.3 NW 19.0 0.0 0.0
05:28 10.2 6.2 76 1015.2 9.8 N 19.0 0.0 0.0
05:29 10.2 6.2 76 1015.1 9.2 NW 16.8 0.0 0.0
05:30 10.2 6.2 76 1015.2 6.9 E 16.8 0.0 0.0
05:31 10.2 6.2 76 1015.2 15.9 NE 16.8 0.0 0.0
05:32 10.2 6.2 76 1015.3 12.1 NW 16.8 0.0 0.0
05:33 10.2 6.2 76 1015.2 11.4 N 16.8 0.0 0.0
05:34 10.1 6.1 76 1015.1 13.0 NE 16.8 0.0 0.0
05:36 10.1 6.1 76 1015.1 15.9 NE 15.9 0.0 0.0
05:37 10.1 6.1 76 1015.3 12.1 N 15.9 0.0 0.0
05:38 10.1 6.1 76 1015.4 4.5 NE 15.9 0.0 0.0
05:39 10.1 6.1 76 1015.4 4.5 NE 15.9 0.0 0.0
05:40 10.1 6.1 76 1015.1 7.6 W 15.9 0.0 0.0
05:41 10.1 6.1 76 1015.3 6.9 NW 15.9 0.0 0.0
05:42 10.1 6.1 76 1015.1 6.9 NW 15.9 0.0 0.0
05:43 10.1 6.1 76 1015.1 15.9 WNW 15.9 0.0 0.0
05:44 10.2 6.2 76 1015.2 12.1 NE 15.9 0.0 0.0
05:45 10.2 6.2 76 1015.2 14.5 NE 15.9 0.0 0.0
05:46 10.2 6.2 76 1015.3 9.8 NE 15.9 0.0 0.0
05:47 10.2 6.2 76 1015.0 17.4 SE 17.4 0.0 0.0
05:48 10.2 6.2 76 1015.3 13.6 E 17.4 0.0 0.0
05:50 10.2 6.2 76 1015.1 9.8 SW 17.4 0.0 0.0
05:51 10.2 6.2 76 1015.2 9.8 N 17.4 0.0 0.0
05:52 10.2 6.2 76 1015.2 13.6 NW 17.4 0.0 0.0
05:53 10.2 6.2 76 1015.2 14.5 NE 17.4 0.0 0.0
05:54 10.2 6.2 76 1015.3 15.9 NE 17.4 0.0 0.0
05:55 10.2 6.2 76 1015.0 10.7 S 17.4 0.0 0.0
05:56 10.2 6.2 76 1015.1 9.8 NW 17.4 0.0 0.0
05:57 10.2 6.2 76 1015.1 9.8 SE 17.4 0.0 0.0
05:58 10.2 6.2 76 1015.2 9.2 WNW 15.9 0.0 0.0
05:59 10.2 6.2 76 1015.2 9.2 N 15.9 0.0 0.0
06:00 10.2 6.4 77 1015.2 13.6 NW 15.9 0.0 0.0
06:02 10.2 6.4 77 1015.2 13.6 N 15.9 0.0 0.0
06:03 10.2 6.4 77 1015.0 15.2 NW 15.9 0.0 0.0
06:04 10.2 6.4 77 1015.1 17.4 NE 17.4 0.0 0.0
06:05 10.2 6.4 77 1015.2 10.7 NE 17.4 0.0 0.0
06:06 10.2 6.4 77 1015.3 9.8 S 17.4 0.0 0.0
06:07 10.2 6.4 77 1015.1 15.2 NNW 17.4 0.0 0.0
06:08 10.2 6.4 77 1015.2 9.2 E 17.4 0.0 0.0
06:10 10.2 6.4 77 1015.2 11.4 NE 17.4 0.0 0.0
06:11 10.2 6.4 77 1015.2 13.0 N 17.4 0.0 0.0
06:12 10.2 6.4 77 1015.2 7.6 SW 17.4 0.0 0.0
06:13 10.2 6.4 77 1015.0 4.5 E 17.4 0.0 0.0
06:14 10.2 6.4 77 1015.2 11.4 WNW 15.9 0.0 0.0
06:15 10.2 6.4 77 1015.2 9.8 WSW 15.9 0.0 0.0
06:16 10.2 6.4 77 1015.2 8.3 E 15.9 0.0 0.0
06:17 10.2 6.4 77 1015.2 9.2 NE 15.9 0.0 0.0
06:18 10.2 6.4 77 1015.2 7.6 E 15.9 0.0 0.0
06:19 10.2 6.4 77 1015.1 11.4 NW 15.9 0.0 0.0
06:20 10.2 6.5 78 1015.2 9.2 NW 15.9 0.0 0.1
06:21 10.2 6.5 78 1015.2 9.2 NW 14.5 0.8 0.1
06:22 10.2 6.5 78 1015.2 9.8 NE 14.5 0.8 0.1
06:23 10.1 6.4 78 1015.3 13.6 N 14.5 0.8 0.1
06:25 10.1 6.4 78 1015.2 9.2 NW 14.5 0.8 0.1
06:26 10.1 6.4 78 1015.3 8.3 NE 14.5 0.0 0.1
06:27 10.1 6.4 78 1015.0 12.1 NW 14.5 0.0 0.1
06:28 10.1 6.4 78 1015.2 7.6 NW 14.5 0.0 0.1
06:29 10.1 6.4 78 1015.2 5.4 NW 14.5 0.0 0.1
06:30 10.1 6.4 78 1015.1 10.7 NE 13.6 0.0 0.1
06:31 10.1 6.4 78 1015.1 15.2 N 15.2 0.0 0.1
06:32 10.1 6.6 79 1015.3 9.8 NE 15.2 0.8 0.1
06:33 10.1 6.6 79 1015.3 9.8 NE 15.2 0.8 0.1
06:34 10.1 6.6 79 1015.2 12.1 NW 15.2 0.8 0.1
06:35 10.1 6.6 79 1015.1 10.7 E 15.2 0.8 0.1
06:36 10.1 6.6 79 1015.1 12.1 NE 15.2 0.8 0.1
06:37 10.1 6.6 79 1015.1 9.8 N 15.2 0.0 0.1
06:38 10.1 6.6 79 1015.3 8.3 NE 15.2 0.0 0.1
06:39 10.1 6.6 79 1014.9 6.0 WNW 15.2 0.0 0.1
06:40 10.1 6.6 79 1015.1 9.8 NE 15.2 0.0 0.1
06:41 10.3 6.8 79 1015.0 6.9 N 15.2 0.0 0.1
06:42 10.1 6.6 79 1015.1 9.8 N 13.0 0.0 0.1
06:43 10.1 6.6 79 1015.1 9.8 W 13.0 0.0 0.2
06:44 10.1 6.6 79 1015.1 9.8 W 13.0 0.8 0.2
06:46 10.1 6.6 79 1015.1 12.1 NNE 13.0 0.8 0.2
06:47 10.1 6.8 80 1015.1 13.0 NW 13.0 0.8 0.2
06:48 10.1 6.8 80 1015.1 7.6 NW 13.0 0.8 0.2
06:49 10.1 6.8 80 1015.2 14.5 NW 14.5 0.0 0.2
06:50 10.1 6.8 80 1015.2 9.2 S 14.5 0.0 0.2
06:51 10.1 6.8 80 1015.1 10.7 NE 14.5 0.0 0.2
06:52 10.1 6.8 80 1015.2 6.0 NE 14.5 0.0 0.2
06:53 10.1 6.8 80 1015.3 13.6 NW 14.5 0.0 0.2
06:54 10.1 6.8 80 1015.0 12.1 NE 14.5 0.0 0.2
06:55 10.1 6.8 80 1015.1 9.8 N 14.5 0.0 0.2
06:56 10.1 6.8 80 1015.1 9.8 N 14.5 0.8 0.3
06:57 10.1 6.8 80 1015.1 9.8 N 14.5 0.8 0.3
06:58 10.2 6.9 80 1015.0 11.4 W 14.5 0.8 0.3
06:59 10.2 6.9 80 1015.1 10.7 N 13.6 0.8 0.3
07:01 10.2 6.9 80 1015.0 10.7 N 13.6 0.0 0.3
07:02 10.2 6.9 80 1015.2 7.6 NW 13.6 0.0 0.3
07:03 10.2 6.9 80 1015.1 7.6 NW 12.1 0.0 0.3
07:04 10.2 6.9 80 1015.0 7.6 NW 11.4 0.0 0.3
07:05 10.2 6.9 80 1015.1 7.6 NW 11.4 0.0 0.3
07:06 10.2 6.9 80 1014.9 7.6 NW 11.4 0.0 0.3
07:07 10.2 6.9 80 1015.1 7.6 NW 11.4 0.0 0.3
07:08 10.2 6.9 80 1015.2 7.6 NW 11.4 0.0 0.3
07:09 10.2 6.9 80 1015.2 7.6 NW 10.7 0.0 0.3
07:10 10.2 6.9 80 1015.2 7.6 NW 10.7 0.0 0.3
07:11 10.2 6.9 80 1015.1 7.6 NW 10.7 0.0 0.3
07:12 10.2 6.9 80 1015.0 7.6 NW 10.7 0.0 0.3
07:13 10.2 6.9 80 1015.1 7.6 NW 10.7 0.0 0.3
07:14 10.2 6.9 80 1015.1 7.6 NW 10.7 0.0 0.3
07:15 10.2 6.9 80 1015.1 7.6 NW 10.7 0.0 0.3
07:17 10.2 6.9 80 1015.0 7.6 NW 10.7 0.0 0.3
07:18 10.2 6.9 80 1015.0 7.6 NW 10.7 0.0 0.3
07:19 10.2 6.9 80 1015.1 7.6 NW 10.7 0.0 0.3
07:20 10.2 6.9 80 1015.1 7.6 NW 10.7 0.0 0.3
07:21 10.2 6.9 80 1015.1 7.6 NW 10.7 0.0 0.3
07:22 10.2 6.9 80 1015.0 7.6 NW 10.7 0.0 0.3
07:23 10.2 6.9 80 1015.0 7.6 NW 10.7 0.0 0.3
07:24 10.2 6.9 80 1015.1 7.6 NW 10.7 0.0 0.3
07:25 10.2 6.9 80 1014.9 7.6 NW 10.7 0.0 0.3
07:26 10.2 6.9 80 1015.1 7.6 NW 10.7 0.0 0.3
07:27 10.2 6.9 80 1015.0 7.6 NW 10.7 0.0 0.3
07:28 10.2 6.9 80 1015.2 7.6 NW 10.7 0.0 0.3
07:29 10.2 6.9 80 1015.0 7.6 NW 10.7 0.0 0.3
07:30 10.2 6.9 80 1015.3 7.6 NW 10.7 0.0 0.3
07:32 10.2 6.9 80 1015.1 7.6 NW 10.7 0.0 0.3
07:33 10.2 6.9 80 1015.1 7.6 NW 10.7 0.0 0.3
07:34 10.2 6.9 80 1015.0 7.6 NW 10.7 0.0 0.3
07:35 10.2 6.9 80 1015.1 7.6 NW 10.7 0.0 0.3
07:36 10.2 6.9 80 1015.1 7.6 NW 10.7 0.0 0.3
07:37 10.2 6.9 80 1015.1 7.6 NW 10.7 0.0 0.3
07:38 10.2 6.9 80 1015.2 7.6 NW 10.7 0.0 0.3
07:39 10.2 6.9 80 1015.1 7.6 NW 10.7 0.0 0.3
07:40 10.2 6.9 80 1015.0 7.6 NW 10.7 0.0 0.3
07:41 10.2 6.9 80 1015.0 7.6 NW 10.7 0.0 0.3
07:42 10.2 6.9 80 1015.1 7.6 NW 10.7 0.0 0.3
07:43 10.2 6.9 80 1015.1 7.6 NW 10.7 0.0 0.3
07:44 10.0 6.9 81 1015.1 7.6 N 7.6 0.0 0.6
07:45 10.0 6.9 81 1015.1 12.1 NE 12.1 3.8 0.6
07:47 10.0 6.9 81 1015.0 9.8 N 12.1 3.8 0.6
07:49 10.0 6.9 81 1015.1 9.8 N 12.1 3.8 0.6
07:50 10.0 6.9 81 1015.0 9.8 N 12.1 0.0 0.6
07:51 10.0 6.9 81 1015.0 7.6 NE 12.1 0.0 0.6
07:52 10.0 6.9 81 1015.0 7.6 NE 12.1 0.8 0.6
07:53 10.0 6.9 81 1014.9 7.6 NE 12.1 0.8 0.6
07:54 10.0 6.9 81 1015.0 13.6 NE 13.6 0.8 0.6
07:55 10.0 6.9 81 1015.1 13.6 NE 13.6 0.8 0.6
07:56 10.0 6.9 81 1014.8 13.6 NE 13.6 0.8 0.6
07:58 10.0 6.9 81 1014.9 17.4 SE 17.4 0.0 0.6
07:59 10.0 6.9 81 1014.8 17.4 SE 17.4 0.0 0.6
08:00 10.0 6.9 81 1015.0 17.4 SE 17.4 0.0 0.6
08:01 10.0 6.9 81 1014.9 17.4 SE 17.4 0.0 0.6
08:02 10.0 6.9 81 1014.8 17.4 SE 17.4 0.0 0.6
08:03 10.0 6.9 81 1014.9 17.4 SE 17.4 0.0 0.6
08:04 10.0 6.9 81 1014.7 17.4 SE 17.4 0.0 0.6
08:05 10.0 6.9 81 1014.7 17.4 SE 17.4 0.0 0.6
08:06 10.0 6.9 81 1014.7 17.4 SE 17.4 0.0 0.6
08:07 10.0 6.9 81 1014.7 17.4 SE 17.4 0.0 0.6
08:08 10.0 6.9 81 1014.9 5.4 NW 17.4 0.8 0.7
08:09 10.0 6.9 81 1014.6 13.0 NE 17.4 0.8 0.7
08:10 10.0 6.9 81 1015.0 10.7 NE 17.4 0.8 0.7
08:11 10.0 6.9 81 1014.7 10.7 NE 17.4 0.8 0.7
08:13 10.0 7.1 82 1014.7 18.3 WSW 18.3 0.8 0.8
08:14 10.0 7.1 82 1014.8 9.2 NE 18.3 0.8 0.8
08:15 10.0 7.1 82 1014.8 9.2 NE 18.3 0.8 0.8
08:16 10.0 7.1 82 1014.8 6.9 N 18.3 0.8 0.8
08:17 10.0 7.1 82 1014.7 11.4 NE 18.3 0.8 0.8
08:18 10.0 7.1 82 1014.6 11.4 NE 18.3 0.0 0.8
08:19 10.0 7.1 82 1014.6 15.9 N 18.3 0.8 0.8
08:20 10.0 7.1 82 1014.8 8.3 SE 18.3 0.8 0.8
08:21 10.0 7.1 82 1014.7 15.2 NE 18.3 0.8 0.8
08:22 10.0 7.1 82 1014.7 9.8 NW 18.3 0.8 0.8
08:23 10.0 7.1 82 1014.7 13.6 SW 18.3 0.8 0.8
08:24 10.0 7.1 82 1014.6 6.0 NW 15.9 0.0 0.8
08:25 10.0 7.1 82 1014.6 7.6 W 15.9 0.0 0.8
08:27 10.0 7.1 82 1014.7 12.1 WNW 15.9 0.8 0.9
08:28 10.1 7.2 82 1014.6 15.9 W 15.9 0.8 0.9
08:29 10.0 7.1 82 1014.6 10.7 N 15.9 0.8 0.9
08:30 10.0 7.1 82 1014.7 6.9 NE 15.9 0.8 0.9
08:31 10.1 7.2 82 1014.6 10.7 NW 15.9 0.8 0.9
08:32 10.1 7.2 82 1014.6 11.4 WSW 15.9 0.0 0.9
08:33 10.1 7.2 82 1014.5 11.4 N 15.9 0.0 0.9
08:34 10.1 7.2 82 1014.6 9.8 E 15.9 0.0 0.9
08:35 10.1 7.2 82 1014.5 10.7 NW 15.9 0.0 0.9
08:36 10.1 7.2 82 1014.8 10.7 NW 15.9 0.0 0.9
08:37 10.1 7.2 82 1014.6 13.0 N 15.9 0.0 0.9
08:38 10.1 7.2 82 1014.6 10.7 N 15.2 0.0 0.9
08:39 10.2 7.3 82 1014.7 9.2 SE 15.2 0.0 0.9
08:40 10.2 7.3 82 1014.7 7.6 S 15.2 0.0 0.9
08:41 10.2 7.3 82 1014.6 12.1 SE 15.2 0.0 0.9
08:43 10.2 7.3 82 1014.5 9.8 NW 15.2 0.0 0.9
08:44 10.2 7.3 82 1014.5 25.1 NW 25.1 0.0 0.9
08:45 10.2 7.4 83 1014.7 8.3 NW 25.1 0.0 0.9
08:46 10.2 7.4 83 1014.7 8.3 NW 25.1 0.0 0.9
08:47 10.3 7.5 83 1014.7 11.4 NW 25.1 0.0 0.9
08:48 10.3 7.5 83 1014.6 13.6 N 25.1 0.0 0.9
08:49 10.4 7.6 83 1014.4 9.8 N 25.1 0.0 0.9
08:50 10.4 7.6 83 1014.5 11.4 N 25.1 0.0 0.9
08:51 10.4 7.6 83 1014.5 7.6 W 25.1 0.0 0.9
08:52 10.5 7.7 83 1014.5 13.6 WNW 25.1 0.0 0.9
08:53 10.5 7.7 83 1014.6 18.3 WNW 25.1 0.0 0.9
08:54 10.5 7.7 83 1014.5 18.3 WNW 18.3 0.0 0.9
08:55 10.6 7.8 83 1014.6 13.6 N 18.3 0.0 0.9
08:56 10.6 7.8 83 1014.5 13.6 N 18.3 0.8 0.9
08:58 10.7 7.9 83 1014.5 13.6 SE 18.3 0.8 0.9
08:59 10.7 7.9 83 1014.4 19.0 NW 19.0 0.8 0.9
09:00 10.7 7.9 83 1014.4 19.0 NW 19.0 0.8 0.9
09:01 10.7 7.9 83 1014.4 19.0 NW 19.0 0.0 0.9
09:02 10.7 7.9 83 1014.4 19.0 NW 19.0 0.0 0.9
09:03 10.7 7.9 83 1014.5 19.0 NW 19.0 0.0 0.9
09:04 10.7 7.9 83 1014.3 19.0 NW 19.0 0.0 0.9
09:05 10.7 7.9 83 1014.4 19.0 NW 19.0 0.0 0.9
09:06 10.9 8.1 83 1014.5 12.1 NNW 19.0 0.0 0.9
09:07 10.9 8.1 83 1014.4 12.1 NNW 19.0 0.0 0.9
09:08 10.9 8.1 83 1014.5 12.1 NNW 19.0 0.0 0.9
09:09 10.9 8.1 83 1014.4 12.1 NNW 19.0 0.0 0.9
09:10 10.9 8.1 83 1014.4 12.1 NNW 19.0 0.0 0.9
09:11 10.9 8.1 83 1014.4 12.1 NNW 19.0 0.0 0.9
09:12 11.0 8.2 83 1014.3 12.1 W 19.0 0.0 0.9
09:13 11.0 8.2 83 1014.2 12.1 W 19.0 0.0 0.9
09:14 11.0 8.2 83 1014.3 12.1 W 19.0 0.0 0.9
09:16 11.0 8.2 83 1014.3 12.1 W 12.1 0.0 0.9
09:17 11.0 8.2 83 1014.2 9.8 NW 12.1 0.0 0.9
09:18 11.0 8.2 83 1014.2 9.8 NW 12.1 0.0 0.9
09:21 11.0 8.0 82 1014.4 22.8 NW 22.8 0.0 0.9
09:22 11.0 8.0 82 1014.5 21.3 NE 22.8 0.0 0.9
09:24 11.0 8.0 82 1014.4 13.6 WSW 22.8 0.0 0.9
09:25 11.0 8.0 82 1014.5 13.6 NW 22.8 0.0 0.9
09:26 11.0 8.0 82 1014.5 10.7 NW 22.8 0.0 0.9
09:27 11.0 8.0 82 1014.5 10.7 NW 22.8 0.0 0.9
09:28 11.0 8.0 82 1014.4 10.7 NW 22.8 0.0 0.9
09:29 11.0 8.0 82 1014.5 13.6 NW 22.8 0.0 0.9
09:30 11.0 8.0 82 1014.6 11.4 NE 22.8 0.0 0.9
09:31 11.0 8.0 82 1014.4 10.7 SW 22.8 0.0 0.9
09:32 11.0 8.0 82 1014.5 5.4 N 21.3 0.0 0.9
09:33 11.0 8.0 82 1014.4 12.1 N 15.2 0.0 0.9
09:34 11.0 8.0 82 1014.5 11.4 NW 15.2 0.0 0.9
09:35 11.0 8.0 82 1014.4 12.1 WNW 15.2 0.0 0.9
09:36 11.0 8.0 82 1014.6 15.2 N 15.2 0.0 0.9
09:37 10.9 8.0 82 1014.5 12.1 N 17.4 0.0 0.9
09:38 10.9 8.0 82 1014.5 7.6 N 17.4 0.0 0.9
09:39 10.9 8.0 82 1014.5 10.7 NW 17.4 0.0 0.9
09:40 10.9 8.0 82 1014.6 6.9 W 17.4 0.0 0.9
09:41 10.9 8.0 82 1014.5 13.6 N 17.4 0.0 0.9
09:43 10.9 7.8 81 1014.3 13.6 NW 17.4 0.0 0.9
09:44 10.9 8.0 82 1014.5 16.8 SE 17.4 0.0 0.9
09:45 10.8 7.9 82 1014.4 8.3 NE 17.4 0.0 0.9
09:46 10.8 7.7 81 1014.5 9.8 N 17.4 0.0 0.9
09:47 10.8 7.7 81 1014.4 12.1 N 17.4 0.0 0.9
09:48 10.8 7.7 81 1014.3 12.1 WNW 16.8 0.0 0.9
09:49 10.8 7.7 81 1014.4 11.4 W 16.8 0.0 0.9
09:50 10.8 7.7 81 1014.4 13.0 W 16.8 0.0 0.9
09:51 10.8 7.7 81 1014.4 7.6 NW 16.8 0.0 0.9
09:52 10.8 7.7 81 1014.4 10.7 E 16.8 0.0 0.9
09:53 10.8 7.7 81 1014.4 9.2 W 16.8 0.0 0.9
09:54 10.8 7.7 81 1014.4 14.5 NW 15.2 0.0 0.9
09:55 10.8 7.7 81 1014.3 10.7 WNW 15.2 0.0 0.9
09:56 10.8 7.7 81 1014.5 10.7 WNW 15.2 0.0 0.9
09:58 10.8 7.7 81 1014.4 8.3 N 14.5 0.0 0.9
09:59 10.8 7.7 81 1014.3 7.6 NNE 14.5 0.0 0.9
10:00 10.8 7.7 81 1014.3 7.6 NNE 14.5 0.0 0.9
10:01 10.8 7.7 81 1014.5 7.6 NNE 14.5 0.0 0.9
10:02 10.8 7.7 81 1014.3 7.6 NNE 14.5 0.0 0.9
10:03 10.8 7.7 81 1014.3 7.6 NNE 14.5 0.0 0.9
10:04 10.8 7.7 81 1014.3 7.6 NNE 14.5 0.0 0.9
10:05 10.8 7.7 81 1014.4 9.8 W 13.6 0.0 0.9
10:06 10.8 7.7 81 1014.3 8.3 W 13.6 0.0 0.9
10:07 10.8 7.7 81 1014.3 13.0 NW 13.6 0.0 0.9
10:08 10.8 7.7 81 1014.4 12.1 S 13.0 0.0 0.9
10:09 10.8 7.7 81 1014.2 9.8 N 13.6 0.0 0.9
10:10 10.8 7.7 81 1014.2 13.6 S 13.6 0.0 0.9
10:11 10.8 7.7 81 1014.2 13.0 N 13.6 0.0 0.9
10:12 10.8 7.7 81 1014.2 7.6 SE 13.6 0.0 0.9
10:14 10.8 7.7 81 1014.3 13.0 SW 13.6 0.0 0.9
10:15 10.8 7.7 81 1014.2 13.0 N 13.6 0.0 0.9
10:16 10.8 7.7 81 1014.2 9.2 SW 13.6 0.0 0.9
10:17 10.8 7.7 81 1014.1 11.4 NW 13.6 0.0 0.9
10:18 10.8 7.7 81 1014.3 8.3 NW 13.6 0.0 0.9
10:19 10.8 7.7 81 1014.2 15.9 N 15.9 0.0 0.9
10:20 10.8 7.7 81 1014.3 14.5 NW 15.9 0.0 0.9
10:21 10.8 7.7 81 1014.5 6.0 SW 15.9 0.0 0.9
10:22 10.8 7.7 81 1014.2 12.1 N 15.9 0.0 0.9
10:23 10.8 7.7 81 1014.3 13.0 N 15.9 0.0 0.9
10:24 10.8 7.7 81 1014.3 9.8 N 15.9 0.0 0.9
10:25 10.7 7.6 81 1014.2 13.6 NNW 15.9 0.0 0.9
10:26 10.7 7.6 81 1014.4 15.2 WSW 15.9 0.0 0.9
10:28 10.7 7.6 81 1014.5 15.2 SW 15.9 0.0 0.9
10:29 10.7 7.6 81 1014.3 8.3 W 15.2 0.0 0.9
10:30 10.7 7.6 81 1014.3 8.3 W 15.2 0.0 0.9
10:31 10.7 7.6 81 1014.5 10.7 NNE 15.2 0.0 0.9
10:32 10.7 7.6 81 1014.2 12.1 NW 15.2 0.0 0.9
10:33 10.6 7.5 81 1014.4 10.7 NW 15.2 0.0 0.9
10:34 10.7 7.6 81 1014.4 7.6 NE 15.2 0.0 0.9
10:35 10.6 7.5 81 1014.4 10.7 NW 15.2 0.0 0.9
10:36 10.6 7.5 81 1014.5 10.7 NW 15.2 0.0 0.9
10:37 10.6 7.5 81 1014.5 10.7 NW 15.2 0.0 0.9
10:38 10.6 7.5 81 1014.4 10.7 NW 15.2 0.0 0.9
10:39 10.6 7.5 81 1014.5 10.7 NW 13.0 0.0 0.9
10:40 10.6 7.5 81 1014.3 10.7 NW 13.0 0.0 0.9
10:41 10.6 7.5 81 1014.5 10.7 NW 12.1 0.0 0.9
10:42 10.6 7.5 81 1014.3 10.7 NW 12.1 0.0 0.9
10:43 10.6 7.5 81 1014.5 10.7 NW 10.7 0.0 0.9
10:44 10.6 7.5 81 1014.5 10.7 NW 10.7 0.0 0.9
10:45 10.6 7.5 81 1014.4 10.7 NW 10.7 0.0 0.9
10:46 10.6 7.5 81 1014.5 10.7 NW 10.7 0.0 0.9
10:47 10.6 7.5 81 1014.5 10.7 NW 10.7 0.0 0.9
10:48 10.6 7.5 81 1014.4 10.7 NW 10.7 0.0 0.9
10:50 10.6 7.5 81 1014.5 10.7 NW 10.7 0.0 0.9
10:51 10.6 7.5 81 1014.5 10.7 NW 10.7 0.0 0.9
10:52 10.6 7.5 81 1014.5 10.7 NW 10.7 0.0 0.9
10:53 10.6 7.5 81 1014.5 10.7 NW 10.7 0.0 0.9
10:54 10.6 7.5 81 1014.3 10.7 NW 10.7 0.0 0.9
10:55 10.6 7.5 81 1014.4 10.7 NW 10.7 0.0 0.9
10:56 10.6 7.5 81 1014.5 10.7 NW 10.7 0.0 0.9
10:57 10.6 7.5 81 1014.6 10.7 NW 10.7 0.0 0.9
10:58 10.6 7.5 81 1014.4 10.7 NW 10.7 0.0 0.9
10:59 10.4 7.5 82 1014.4 11.4 NW 11.4 0.8 1.0
11:00 10.4 7.5 82 1014.4 11.4 NW 11.4 0.8 1.0
11:01 10.4 7.5 82 1014.5 11.4 NW 11.4 0.8 1.0
11:02 10.4 7.5 82 1014.4 11.4 NW 11.4 0.8 1.0
11:03 10.4 7.5 82 1014.4 15.9 N 15.9 0.8 1.0
11:04 10.4 7.5 82 1014.5 15.9 N 15.9 0.0 1.0
11:05 10.4 7.5 82 1014.4 15.9 N 15.9 0.0 1.0
11:06 10.4 7.5 82 1014.4 15.9 N 15.9 0.0 1.0
11:08 10.4 7.5 82 1014.3 25.1 E 25.1 0.8 1.1
11:09 10.4 7.5 82 1014.3 12.1 NW 25.1 0.8 1.1
11:10 10.4 7.5 82 1014.3 10.7 S 25.1 0.8 1.1
11:11 10.4 7.5 82 1014.4 9.2 N 25.1 0.8 1.1
11:12 10.4 7.6 83 1014.3 14.5 N 25.1 0.8 1.1
11:13 10.4 7.5 82 1014.4 12.1 NW 25.1 0.0 1.1
11:14 10.4 7.6 83 1014.2 15.2 W 25.1 0.0 1.1
11:15 10.4 7.6 83 1014.4 13.0 NW 25.1 0.0 1.1
11:16 10.4 7.6 83 1014.4 13.0 NW 25.1 0.0 1.1
11:17 10.4 7.6 83 1014.4 12.1 SW 25.1 0.0 1.1
11:18 10.4 7.6 83 1014.5 10.7 NW 15.2 0.0 1.1
11:19 10.3 7.5 83 1014.5 18.3 SE 18.3 0.8 1.1
11:20 10.3 7.5 83 1014.4 9.2 SW 18.3 0.8 1.1
11:22 10.3 7.5 83 1014.4 9.2 WNW 18.3 2.3 1.3
11:23 10.3 7.5 83 1014.4 8.3 N 18.3 2.3 1.3
11:24 10.3 7.5 83 1014.5 12.1 E 18.3 2.3 1.3
11:25 10.3 7.5 83 1014.5 9.2 N 18.3 2.3 1.3
11:26 10.3 7.5 83 1014.5 9.2 N 18.3 2.3 1.4
11:27 10.3 7.5 83 1014.5 8.3 SE 18.3 1.5 1.4
11:28 10.3 7.5 83 1014.5 6.9 NE 18.3 1.5 1.4
11:29 10.3 7.5 83 1014.4 7.6 NE 13.0 0.8 1.4
11:30 10.3 7.5 83 1014.5 6.0 NE 13.0 0.8 1.4
11:31 10.3 7.5 83 1014.3 6.9 N 12.1 0.0 1.4
11:32 10.3 7.5 83 1014.5 6.9 NE 12.1 0.0 1.4
11:33 10.3 7.5 83 1014.4 12.1 E 12.1 0.0 1.4
11:34 10.3 7.5 83 1014.5 10.7 NW 12.1 0.8 1.4
11:35 10.3 7.5 83 1014.5 7.6 NE 12.1 0.8 1.4
11:37 10.3 7.5 83 1014.5 13.6 NW 13.6 0.8 1.4
11:38 10.3 7.5 83 1014.3 15.9 NE 15.9 0.8 1.4
11:39 10.3 7.5 83 1014.5 6.9 NE 15.9 0.0 1.4
11:40 10.3 7.7 84 1014.5 6.0 SW 15.9 0.0 1.4
11:41 10.3 7.5 83 1014.5 9.2 S 15.9 0.0 1.4
11:42 10.3 7.7 84 1014.5 10.7 WNW 15.9 0.0 1.4
11:43 10.3 7.7 84 1014.5 9.2 N 15.9 0.0 1.4
11:44 10.3 7.5 83 1014.5 9.2 NE 15.9 0.0 1.4
11:45 10.3 7.5 83 1014.5 9.2 NE 15.9 0.0 1.4
11:46 10.3 7.5 83 1014.3 10.7 NW 15.9 0.0 1.4
11:47 10.3 7.7 84 1014.4 8.3 NW 15.9 0.0 1.4
11:48 10.2 7.4 83 1014.6 7.6 NNE 15.9 0.0 1.4
11:49 10.3 7.7 84 1014.6 8.3 N 13.0 0.0 1.4
11:50 10.2 7.6 84 1014.5 13.6 N 13.6 0.0 1.4
11:51 10.2 7.6 84 1014.4 13.6 E 13.6 0.0 1.4
11:52 10.2 7.6 84 1014.5 9.2 NE 13.6 0.0 1.4
11:53 10.2 7.6 84 1014.4 6.9 W 13.6 0.0 1.4
11:54 10.2 7.6 84 1014.4 11.4 SW 13.6 0.0 1.4
11:55 10.2 7.6 84 1014.6 8.3 E 13.6 0.0 1.4
11:56 10.2 7.6 84 1014.5 7.6 ENE 13.6 0.0 1.4
11:57 10.2 7.6 84 1014.5 15.9 NE 15.9 0.0 1.4
11:58 10.2 7.6 84 1014.5 14.5 NE 15.9 0.0 1.4
11:59 10.2 7.6 84 1014.6 10.7 NW 15.9 0.0 1.4
12:00 10.2 7.6 84 1014.5 10.7 NW 15.9 0.0 1.4
12:01 10.2 7.6 84 1014.5 10.7 NW 15.9 0.0 1.4
12:02 10.2 7.6 84 1014.6 9.2 WNW 15.9 0.0 1.4
12:03 10.2 7.6 84 1014.5 8.3 NW 15.9 0.0 1.4
12:04 10.2 7.6 84 1014.5 13.0 WNW 15.9 0.0 1.4
12:05 10.2 7.6 84 1014.6 10.7 N 15.9 0.0 1.4
12:06 10.2 7.6 84 1014.6 7.6 NW 15.9 0.0 1.4
12:08 10.2 7.6 84 1014.5 15.2 SSE 15.2 0.0 1.4
12:09 10.2 7.6 84 1014.6 4.5 ENE 15.2 0.0 1.4
12:10 10.2 7.6 84 1014.5 9.8 ENE 15.2 0.0 1.4
12:11 10.2 7.6 84 1014.5 9.2 NW 15.2 0.0 1.4
12:12 10.2 7.6 84 1014.5 11.4 N 15.2 0.0 1.4
12:13 10.2 7.6 84 1014.6 13.0 S 15.2 0.0 1.4
12:14 10.2 7.6 84 1014.5 14.5 NE 15.2 0.0 1.4
12:15 10.2 7.6 84 1014.5 10.7 WNW 15.2 0.8 1.5
12:16 10.2 7.6 84 1014.5 9.2 NW 15.2 0.8 1.5
12:17 10.2 7.6 84 1014.6 7.6 ENE 15.2 0.8 1.5
12:18 10.3 7.7 84 1014.5 9.2 N 15.2 0.8 1.5
12:19 10.3 7.7 84 1014.6 8.3 N 14.5 0.8 1.5
12:20 10.3 7.7 84 1014.6 4.5 E 14.5 0.0 1.5
12:21 10.3 7.7 84 1014.6 9.8 E 14.5 0.0 1.5
12:23 10.3 7.7 84 1014.6 15.2 W 15.9 0.0 1.5
12:24 10.3 7.7 84 1014.6 18.3 NW 18.3 0.0 1.5
12:25 10.3 7.9 85 1014.6 19.0 WNW 19.0 0.0 1.5
12:26 10.3 7.7 84 1014.7 15.2 NW 19.0 0.0 1.5
12:27 10.3 7.9 85 1014.6 10.7 N 19.0 0.0 1.5
12:28 10.3 7.9 85 1014.8 9.8 N 19.0 0.0 1.5
12:29 10.3 7.9 85 1014.6 10.7 N 19.0 0.0 1.5
12:30 10.3 7.9 85 1014.7 12.1 N 19.0 0.0 1.5
12:31 10.3 7.9 85 1014.5 11.4 N 19.0 0.0 1.5
12:32 10.3 7.9 85 1014.6 13.6 N 19.0 0.0 1.5
12:33 10.4 8.0 85 1014.6 8.3 N 19.0 0.0 1.5
12:34 10.4 8.0 85 1014.5 7.6 SE 19.0 0.0 1.5
12:35 10.4 8.0 85 1014.7 13.0 NW 19.0 0.0 1.5
12:36 10.4 8.0 85 1014.6 10.7 WSW 15.2 0.0 1.5
12:38 10.4 8.0 85 1014.7 9.2 SW 13.6 0.0 1.5
12:39 10.4 8.0 85 1014.7 10.7 W 13.6 0.0 1.5
12:40 10.4 8.0 85 1014.7 13.0 ENE 13.6 0.0 1.5
12:41 10.4 8.0 85 1014.7 5.4 W 13.6 0.0 1.5
12:42 10.4 8.0 85 1014.7 12.1 NNW 13.6 0.0 1.5
12:43 10.4 8.0 85 1014.7 11.4 WNW 13.6 0.0 1.5
12:44 10.4 8.0 85 1014.7 11.4 N 13.0 0.0 1.5
12:45 10.4 8.0 85 1014.6 9.2 WNW 13.0 0.0 1.5
12:46 10.4 8.0 85 1014.7 7.6 WNW 13.0 0.0 1.5
12:47 10.4 8.0 85 1014.5 12.1 NE 13.0 0.0 1.5
12:48 10.4 8.0 85 1014.7 9.2 N 13.0 0.0 1.5
12:49 10.4 8.0 85 1014.6 7.6 NW 13.0 0.0 1.5
12:50 10.4 8.0 85 1014.7 8.3 NNE 13.0 0.0 1.5
12:51 10.4 8.0 85 1014.8 7.6 N 12.1 0.8 1.6
12:52 10.5 8.1 85 1014.6 6.0 NW 12.1 0.8 1.6
12:53 10.5 8.1 85 1014.7 6.9 N 12.1 0.8 1.6
12:54 10.5 8.1 85 1014.8 6.0 NW 12.1 1.5 1.6
12:55 10.5 8.1 85 1014.8 6.9 W 12.1 2.3 1.7
12:56 10.5 8.1 85 1014.6 8.3 W 12.1 1.5 1.7
12:57 10.5 8.1 85 1014.7 11.4 S 11.4 1.5 1.8
12:58 10.5 8.1 85 1014.5 12.1 SW 12.1 2.3 1.8
12:59 10.5 8.1 85 1014.5 6.9 N 12.1 1.5 1.8
13:00 10.5 8.1 85 1014.6 4.5 N 12.1 0.8 1.8
13:01 10.5 8.1 85 1014.5 4.5 N 12.1 0.8 1.8
13:02 10.6 8.2 85 1014.6 10.7 NW 12.1 0.8 1.8
13:03 10.6 8.2 85 1014.6 13.6 SE 13.6 0.0 1.8
13:04 10.6 8.2 85 1014.6 4.5 SW 13.6 0.8 1.8
13:05 10.6 8.2 85 1014.6 6.9 SW 13.6 1.5 1.9
13:06 10.5 8.1 85 1014.7 10.7 N 13.6 2.3 2.0
13:07 10.6 8.2 85 1014.4 9.8 SE 13.6 2.3 2.0
13:08 10.5 8.1 85 1014.5 10.7 N 13.6 2.3 2.0
13:09 10.6 8.2 85 1014.3 10.7 NW 13.6 1.5 2.0
13:10 10.6 8.2 85 1014.5 11.4 NW 13.6 0.8 2.0
13:11 10.6 8.2 85 1014.5 6.9 N 13.6 0.0 2.0
13:13 10.6 8.2 85 1014.5 9.8 N 13.6 0.0 2.0
13:14 10.6 8.2 85 1014.6 9.8 NW 12.1 0.8 2.0
13:16 10.6 8.4 86 1014.6 6.0 W 12.1 0.8 2.0
13:17 10.6 8.4 86 1014.4 15.9 WNW 15.9 0.8 2.0
13:18 10.6 8.2 85 1014.6 8.3 SE 15.9 0.8 2.0
13:19 10.6 8.4 86 1014.6 6.9 NW 15.9 0.0 2.0
13:20 10.6 8.4 86 1014.6 13.0 NE 15.9 0.0 2.0
13:21 10.6 8.4 86 1014.7 8.3 N 15.9 0.0 2.0
13:22 10.6 8.4 86 1014.5 8.3 N 15.9 0.0 2.0
13:23 10.6 8.4 86 1014.8 7.6 NW 15.9 0.0 2.0
13:24 10.6 8.4 86 1014.5 10.7 NE 15.9 0.0 2.0
13:25 10.6 8.4 86 1014.5 10.7 NE 15.9 0.0 2.0
13:26 10.6 8.4 86 1014.7 8.3 NE 15.9 0.0 2.0
13:27 10.6 8.4 86 1014.8 5.4 S 15.9 0.0 2.0
13:28 10.6 8.4 86 1014.9 9.2 NW 13.0 0.0 2.0
13:29 10.6 8.4 86 1014.8 10.7 NW 13.0 0.0 2.0
13:30 10.6 8.4 86 1014.8 9.8 NW 13.0 0.0 2.0
13:31 10.6 8.4 86 1014.9 12.1 N 13.0 0.0 2.0
13:32 10.6 8.4 86 1014.8 11.4 NE 13.0 0.0 2.0
13:33 10.6 8.4 86 1014.7 8.3 NE 13.0 0.0 2.0
13:34 10.6 8.4 86 1014.8 10.7 N 13.0 0.0 2.0
13:35 10.6 8.4 86 1014.8 6.0 N 13.0 0.0 2.0
13:36 10.6 8.4 86 1014.7 9.2 W 12.1 0.0 2.0
13:37 10.6 8.4 86 1014.7 7.6 E 12.1 0.0 2.0
13:38 10.6 8.4 86 1014.6 6.0 NE 12.1 0.0 2.0
13:39 10.6 8.4 86 1014.8 8.3 N 12.1 0.0 2.0
13:40 10.6 8.4 86 1014.6 7.6 S 12.1 0.0 2.0
13:41 10.6 8.4 86 1014.6 7.6 S 12.1 0.0 2.0
13:42 10.6 8.4 86 1014.8 1.6 NW 12.1 0.0 2.0
13:43 10.6 8.4 86 1014.8 6.0 NNW 12.1 0.0 2.0
13:44 10.6 8.4 86 1014.6 13.0 WNW 13.0 0.0 2.0
13:45 10.6 8.4 86 1014.6 9.8 WNW 13.0 0.0 2.0
13:46 10.6 8.4 86 1014.6 20.6 N 20.6 0.0 2.0
13:47 10.7 8.5 86 1014.5 9.8 NE 20.6 0.0 2.0
13:48 10.7 8.5 86 1014.8 10.7 N 20.6 0.0 2.0
13:49 10.7 8.5 86 1014.6 11.4 NE 20.6 0.0 2.0
13:50 10.7 8.5 86 1014.6 9.2 NW 20.6 0.0 2.0
13:51 10.7 8.5 86 1014.6 6.9 N 20.6 0.0 2.0
13:52 10.7 8.5 86 1014.5 8.3 N 20.6 0.0 2.0
13:53 10.7 8.5 86 1014.5 8.3 NW 20.6 0.0 2.0
13:54 10.7 8.5 86 1014.5 10.7 NE 20.6 0.0 2.0
13:55 10.8 8.6 86 1014.5 13.6 NW 20.6 0.0 2.0
13:56 10.8 8.6 86 1014.5 13.0 S 15.2 0.0 2.0
13:57 10.8 8.6 86 1014.5 8.3 W 15.2 0.0 2.0
13:58 10.8 8.6 86 1014.4 13.0 E 15.2 0.0 2.0
13:59 10.8 8.7 87 1014.6 9.2 NW 13.6 0.0 2.0
14:00 10.8 8.6 86 1014.6 6.9 N 13.6 0.0 2.0
14:01 10.8 8.6 86 1014.6 6.9 N 13.6 0.0 2.0
14:02 10.9 8.7 86 1014.5 13.6 NW 13.6 0.0 2.0
14:03 10.9 8.8 87 1014.6 13.6 NE 13.6 0.0 2.0
14:04 10.9 8.7 86 1014.6 10.7 SE 13.6 0.0 2.0
14:05 10.9 8.8 87 1014.5 6.0 NE 13.6 0.0 2.0
14:06 10.9 8.8 87 1014.6 16.8 N 16.8 0.0 2.0
14:07 10.9 8.8 87 1014.5 6.9 N 16.8 0.0 2.0
14:08 10.9 8.8 87 1014.7 9.8 N 16.8 0.0 2.0
14:09 10.8 8.7 87 1014.7 10.7 NW 16.8 0.0 2.0
14:10 10.9 8.8 87 1014.6 7.6 E 16.8 0.0 2.0
14:11 10.9 8.8 87 1014.6 8.3 NE 16.8 0.0 2.0
14:12 10.9 8.8 87 1014.6 8.3 NE 16.8 0.0 2.0
14:13 10.9 8.8 87 1014.5 16.8 NW 16.8 0.0 2.0
14:14 10.9 8.8 87 1014.5 10.7 WNW 16.8 0.0 2.0
14:15 10.9 8.8 87 1014.7 10.7 NE 16.8 0.0 2.0
14:16 10.9 8.8 87 1014.6 10.7 NE 16.8 0.0 2.0
14:17 10.9 8.8 87 1014.7 6.9 NW 16.8 0.0 2.0
14:18 10.9 8.8 87 1014.6 6.9 N 16.8 0.0 2.0
14:19 10.9 8.8 87 1014.7 13.0 E 16.8 0.0 2.0
14:20 10.8 8.7 87 1014.7 11.4 W 16.8 0.0 2.0
14:21 10.9 8.8 87 1014.6 6.0 N 16.8 0.0 2.0
14:22 10.9 8.8 87 1014.8 10.7 W 16.8 0.0 2.0
14:23 10.9 8.8 87 1014.7 9.8 E 16.8 0.0 2.0
14:24 10.9 8.8 87 1014.7 6.0 NW 13.0 0.0 2.0
14:25 10.9 8.8 87 1014.7 8.3 SW 13.0 0.0 2.0
14:26 10.9 8.8 87 1014.7 13.6 NE 13.6 0.0 2.0
14:27 10.9 8.8 87 1014.6 7.6 E 13.6 0.0 2.0
14:28 10.9 8.8 87 1014.7 8.3 E 13.6 0.0 2.0
14:29 10.9 8.8 87 1014.7 15.9 NW 15.9 0.0 2.0
14:30 10.9 8.8 87 1014.9 7.6 WNW 15.9 0.0 2.0
14:31 10.9 8.8 87 1014.6 7.6 N 15.9 0.0 2.0
14:32 10.9 8.8 87 1014.6 7.6 N 15.9 0.0 2.0
14:33 10.9 8.8 87 1014.7 3.8 NW 15.9 0.0 2.0
14:34 10.9 8.8 87 1014.6 6.9 NE 15.9 0.0 2.0
14:35 10.9 8.8 87 1014.8 8.3 N 15.9 0.0 2.0
14:36 10.8 8.7 87 1014.6 9.2 W 15.9 0.0 2.0
14:37 10.9 8.8 87 1014.5 10.7 N 15.9 0.0 2.0
14:38 10.9 8.8 87 1014.7 11.4 ENE 15.9 0.0 2.0
14:39 10.9 8.8 87 1014.6 4.5 NE 15.9 0.0 2.0
14:40 10.9 8.8 87 1014.7 6.9 N 13.6 0.0 2.0
14:41 10.9 8.8 87 1014.7 15.9 N 15.9 0.0 2.0
14:42 10.9 8.8 87 1014.7 14.5 NW 15.9 0.0 2.0
14:43 10.9 8.8 87 1014.7 8.3 NE 15.9 0.0 2.0
14:44 10.9 8.8 87 1014.6 17.4 W 17.4 0.0 2.0
14:45 10.9 8.8 87 1014.7 5.4 NW 17.4 0.0 2.0
14:46 10.9 8.8 87 1014.8 3.1 ENE 17.4 0.0 2.0
14:47 10.9 8.8 87 1014.8 6.0 NW 17.4 0.0 2.0
14:48 10.9 8.8 87 1014.8 5.4 NW 17.4 0.0 2.0
14:49 10.9 8.8 87 1014.6 15.2 N 17.4 0.0 2.0
14:50 10.9 8.8 87 1014.9 12.1 N 17.4 0.0 2.0
14:51 10.9 8.8 87 1014.8 3.8 N 17.4 0.0 2.0
14:52 10.9 8.8 87 1014.8 13.0 NW 17.4 0.8 2.1
14:53 10.9 8.8 87 1014.8 7.6 NE 17.4 0.8 2.1
14:54 10.9 8.8 87 1014.9 8.3 NW 17.4 0.8 2.1
14:55 10.9 8.8 87 1014.8 8.3 N 15.2 0.8 2.1
14:56 10.9 8.8 87 1014.9 13.6 SE 15.2 0.8 2.1
14:57 10.9 8.8 87 1014.9 8.3 E 15.2 0.0 2.1
14:58 10.8 8.7 87 1014.9 5.4 N 15.2 0.0 2.1
14:59 10.8 8.7 87 1014.9 8.3 NW 15.2 0.0 2.1
15:00 10.8 8.7 87 1015.0 8.3 NW 13.6 0.0 2.1
15:01 10.8 8.7 87 1015.0 8.3 NW 13.6 0.0 2.1
15:02 10.8 8.7 87 1015.0 13.0 N 13.6 0.0 2.1
15:03 10.8 8.7 87 1014.9 14.5 N 14.5 0.0 2.1
15:04 10.8 8.7 87 1015.0 6.0 N 14.5 0.0 2.1
15:05 10.8 8.7 87 1014.9 4.5 W 14.5 0.0 2.1
15:06 10.8 8.7 87 1014.8 10.7 N 14.5 0.0 2.1
15:07 10.8 8.7 87 1014.9 12.1 NW 14.5 0.0 2.1
15:08 10.8 8.7 87 1015.0 8.3 NW 14.5 0.0 2.1
15:09 10.8 8.7 87 1014.8 12.1 NW 14.5 0.0 2.1
15:10 10.8 8.7 87 1014.9 11.4 NW 14.5 0.0 2.1
15:11 10.8 8.7 87 1014.8 6.9 NE 14.5 0.0 2.1
15:12 10.8 8.7 87 1014.9 11.4 NE 14.5 0.0 2.1
15:13 10.8 8.7 87 1014.8 9.2 NW 14.5 0.0 2.1
15:14 10.8 8.7 87 1014.8 10.7 NW 12.1 0.0 2.1
15:15 10.8 8.7 87 1015.0 8.3 WNW 12.1 0.0 2.1
15:16 10.8 8.7 87 1015.0 8.3 WNW 12.1 0.0 2.1
15:17 10.8 8.7 87 1014.8 7.6 N 12.1 0.0 2.1
15:18 10.8 8.7 87 1014.9 10.7 N 12.1 0.0 2.1
15:19 10.8 8.7 87 1014.9 9.8 NW 12.1 0.0 2.1
15:20 10.8 8.7 87 1014.8 6.9 NE 11.4 0.0 2.1
15:21 10.8 8.7 87 1014.8 6.0 N 11.4 0.0 2.1
15:22 10.8 8.7 87 1014.9 4.5 N 11.4 0.0 2.1
15:23 10.8 8.7 87 1014.8 5.4 E 10.7 0.0 2.1
15:24 10.9 8.8 87 1014.9 17.4 NE 17.4 0.0 2.1
15:25 10.9 8.8 87 1015.0 8.3 NE 17.4 0.0 2.1
15:26 10.9 8.8 87 1015.1 7.6 E 17.4 0.0 2.1
15:27 10.8 8.7 87 1014.9 9.2 WNW 17.4 0.0 2.1
15:28 10.8 8.7 87 1014.9 14.5 N 17.4 0.0 2.1
15:29 10.8 8.7 87 1015.0 13.6 N 17.4 0.0 2.1
15:30 10.9 8.8 87 1015.0 12.1 N 17.4 0.0 2.1
15:31 10.8 8.7 87 1015.0 12.1 W 17.4 0.0 2.1
15:32 10.8 8.7 87 1015.0 12.1 W 17.4 0.0 2.1
15:33 10.8 8.7 87 1014.9 13.0 NE 17.4 0.0 2.1
15:34 10.8 8.7 87 1015.0 7.6 SE 17.4 0.0 2.1
15:35 10.8 8.7 87 1015.0 8.3 NE 15.2 0.0 2.1
15:36 10.8 8.7 87 1014.8 10.7 N 15.2 0.0 2.1
15:37 10.8 8.7 87 1014.9 9.8 SW 15.2 0.0 2.1
15:38 10.8 8.7 87 1015.0 8.3 N 15.2 0.0 2.1
15:39 10.8 8.7 87 1015.0 4.5 NW 15.2 0.0 2.1
15:40 10.8 8.7 87 1015.0 13.0 NW 15.2 0.0 2.1
15:41 10.9 8.8 87 1014.9 5.4 NW 13.0 0.0 2.1
15:42 10.8 8.7 87 1014.9 8.3 N 13.0 0.0 2.1
15:43 10.9 8.8 87 1015.0 7.6 SW 13.0 0.0 2.1
15:44 10.9 8.8 87 1015.0 12.1 NW 13.0 0.0 2.1
15:45 10.8 8.7 87 1014.9 12.1 NW 13.0 0.0 2.1
15:46 10.9 8.8 87 1015.1 11.4 N 13.0 0.0 2.1
15:47 10.9 8.8 87 1015.0 12.1 NE 13.0 0.0 2.1
15:48 10.9 8.8 87 1015.0 12.1 NE 13.0 0.0 2.1
15:49 10.9 8.8 87 1015.0 8.3 E 13.0 0.0 2.1
15:50 10.8 8.7 87 1015.0 4.5 N 13.0 0.0 2.1
15:51 10.8 8.7 87 1015.0 1.6 N 12.1 0.0 2.1
15:52 10.9 8.8 87 1015.1 4.5 NW 12.1 0.0 2.1
15:53 10.8 8.7 87 1015.1 11.4 NW 12.1 0.0 2.1
15:54 10.8 8.7 87 1015.1 17.4 NE 17.4 0.0 2.1
15:55 10.9 8.8 87 1015.0 6.9 NE 17.4 0.0 2.1
15:56 10.9 8.8 87 1015.1 13.6 N 17.4 0.0 2.1
15:58 10.9 8.8 87 1015.0 8.3 N 17.4 0.0 2.1
15:59 10.9 8.8 87 1015.1 9.8 N 17.4 0.0 2.1
16:00 10.9 8.8 87 1015.1 9.8 N 17.4 0.0 2.1
16:01 10.9 8.8 87 1015.1 9.8 N 17.4 0.0 2.1
16:02 10.9 8.8 87 1015.0 9.8 N 17.4 0.0 2.1
16:03 10.9 8.8 87 1015.3 9.8 N 17.4 0.0 2.1
16:04 10.8 8.7 87 1015.1 9.2 N 13.6 0.0 2.1
16:05 10.9 8.8 87 1015.2 12.1 NE 13.6 0.0 2.1
16:06 10.9 8.8 87 1015.2 6.9 NW 12.1 0.0 2.1
16:07 10.9 8.8 87 1015.1 9.2 NW 12.1 0.0 2.1
16:08 10.9 8.8 87 1015.1 10.7 N 12.1 0.0 2.1
16:09 10.9 8.8 87 1015.1 15.2 NW 15.2 0.0 2.1
16:10 10.9 8.8 87 1015.2 6.9 N 15.2 0.0 2.1
16:11 10.9 8.8 87 1015.1 8.3 NE 15.2 0.0 2.1
16:12 10.9 8.8 87 1015.2 6.9 WNW 15.2 0.0 2.1
16:13 10.9 8.8 87 1015.1 7.6 WSW 15.2 0.0 2.1
16:14 10.9 8.8 87 1015.0 15.2 NE 15.2 0.0 2.1
16:15 10.9 8.8 87 1015.1 9.2 NW 15.2 0.0 2.1
16:16 10.9 8.8 87 1015.0 11.4 NW 15.2 0.0 2.1
16:17 10.9 8.8 87 1015.0 7.6 NW 15.2 0.0 2.1
16:18 10.9 8.8 87 1015.0 8.3 N 15.2 0.0 2.1
16:19 10.9 8.8 87 1015.0 13.6 WSW 15.2 0.0 2.1
16:20 10.8 8.7 87 1015.0 5.4 NE 15.2 0.0 2.1
16:21 10.9 8.8 87 1015.0 9.2 W 15.2 0.0 2.1
16:22 10.8 8.7 87 1015.1 13.0 W 15.2 0.0 2.1
16:23 10.9 8.8 87 1015.0 6.9 NE 15.2 0.0 2.1
16:24 10.8 8.7 87 1015.0 13.6 SE 13.6 0.0 2.1
16:25 10.8 8.7 87 1015.0 13.6 SE 13.6 0.0 2.1
16:26 10.8 8.7 87 1015.1 14.5 N 14.5 0.0 2.1
16:27 10.8 8.7 87 1015.1 14.5 N 14.5 0.0 2.1
16:28 10.8 8.7 87 1015.0 14.5 N 14.5 0.0 2.1
16:29 10.8 8.7 87 1015.0 14.5 N 14.5 0.0 2.1
16:30 10.8 8.7 87 1015.0 14.5 N 14.5 0.0 2.1
16:31 10.8 8.7 87 1015.0 14.5 N 14.5 0.0 2.1
16:32 10.8 8.7 87 1015.0 9.8 SW 14.5 0.0 2.1
16:33 10.8 8.7 87 1015.1 8.3 SW 14.5 0.0 2.1
16:34 10.8 8.7 87 1015.0 8.3 N 14.5 0.0 2.1
16:35 10.8 8.7 87 1015.0 9.2 E 14.5 0.0 2.1
16:36 10.8 8.7 87 1015.0 15.2 N 15.2 0.0 2.1
16:37 10.8 8.7 87 1015.0 6.9 NE 15.2 0.0 2.1
16:38 10.8 8.7 87 1015.0 10.7 SE 15.2 0.0 2.1
16:39 10.8 8.7 87 1015.2 10.7 N 15.2 0.0 2.1
16:40 10.8 8.7 87 1015.1 10.7 N 15.2 0.0 2.1
16:41 10.8 8.7 87 1015.0 9.8 SW 15.2 0.0 2.1
16:42 10.8 8.7 87 1015.1 12.1 N 15.2 0.0 2.1
16:43 10.8 8.7 87 1014.9 13.0 WNW 15.2 0.0 2.1
16:44 10.8 8.7 87 1015.0 9.8 N 15.2 0.0 2.1
16:45 10.8 8.7 87 1015.0 8.3 W 15.2 0.0 2.1
16:46 10.8 8.7 87 1014.9 5.4 NE 15.2 0.0 2.1
16:47 10.8 8.7 87 1015.0 23.5 NW 23.5 0.0 2.1
16:48 10.8 8.7 87 1015.0 18.3 N 23.5 0.0 2.1
16:49 10.8 8.7 87 1015.1 9.2 N 23.5 0.0 2.1
16:50 10.8 8.7 87 1015.0 13.6 E 23.5 0.0 2.1
16:51 10.8 8.7 87 1015.0 15.9 NE 23.5 0.0 2.1
16:52 10.8 8.7 87 1015.0 11.4 WSW 23.5 0.0 2.1
16:53 10.8 8.7 87 1015.0 13.0 E 23.5 0.0 2.1
16:54 10.9 8.8 87 1015.0 8.3 ENE 23.5 0.0 2.1
16:55 10.8 8.7 87 1015.0 11.4 E 23.5 0.0 2.1
16:56 10.9 8.8 87 1015.1 8.3 N 23.5 0.0 2.1
16:58 10.9 8.8 87 1015.0 5.4 NE 15.9 0.0 2.1
16:59 11.0 8.9 87 1015.0 13.0 NW 15.9 0.0 2.1
17:00 11.0 8.9 87 1015.1 13.0 NW 15.9 0.0 2.1
17:01 11.0 8.9 87 1015.1 13.0 NW 13.0 0.0 2.1
17:02 11.0 8.9 87 1015.1 13.0 NW 13.0 0.0 2.1
17:03 11.0 8.9 87 1015.1 13.0 NW 13.0 0.0 2.1
17:04 11.0 8.9 87 1015.0 13.0 NW 13.0 0.0 2.1
17:05 11.0 8.9 87 1015.2 13.0 NW 13.0 0.0 2.1
17:06 11.0 8.9 87 1015.1 13.0 WNW 13.0 0.0 2.1
17:07 11.0 8.9 87 1015.1 13.0 WNW 13.0 0.0 2.1
17:08 11.0 8.9 87 1015.2 8.3 N 13.0 0.0 2.1
17:09 11.0 8.9 87 1014.8 7.6 N 13.0 0.0 2.1
17:10 11.0 8.9 87 1015.0 10.7 NW 13.0 0.0 2.1
17:11 11.0 8.9 87 1015.0 9.8 N 13.0 0.0 2.1
17:12 11.0 8.9 87 1014.9 7.6 ENE 13.0 0.0 2.1
17:13 11.0 8.9 87 1015.2 6.9 SE 13.0 0.0 2.1
17:14 11.0 8.9 87 1015.0 10.7 W 13.0 0.0 2.1
17:15 11.0 8.9 87 1015.0 5.4 N 13.0 0.0 2.1
17:16 11.0 8.9 87 1015.0 4.5 NW 13.0 0.0 2.1
17:17 11.0 8.9 87 1015.0 6.9 E 13.0 0.0 2.1
17:18 11.1 9.0 87 1015.0 9.8 N 10.7 0.0 2.1
17:19 11.1 9.0 87 1015.2 6.9 N 10.7 0.0 2.1
17:20 11.0 8.9 87 1015.2 14.5 SW 14.5 0.0 2.1
17:21 11.1 9.0 87 1015.1 10.7 NW 14.5 0.0 2.1
17:22 11.1 9.0 87 1015.0 11.4 NW 14.5 0.0 2.1
17:23 11.0 8.9 87 1015.1 6.0 NW 14.5 0.0 2.1
17:24 11.0 8.9 87 1015.2 6.0 NW 14.5 0.0 2.1
17:25 11.1 9.0 87 1015.0 14.5 N 14.5 0.0 2.1
17:26 11.0 8.9 87 1015.0 10.7 N 14.5 0.0 2.1
17:27 11.0 8.9 87 1015.1 9.2 SE 14.5 0.0 2.1
17:28 11.0 8.9 87 1015.1 9.2 SE 14.5 0.0 2.1
17:29 11.0 8.9 87 1015.1 12.1 N 14.5 0.0 2.1
17:30 11.0 8.9 87 1015.1 9.2 N 14.5 0.0 2.1
17:31 11.0 8.9 87 1015.0 13.0 N 14.5 0.0 2.1
17:32 11.0 8.9 87 1015.0 11.4 NE 14.5 0.0 2.1
17:33 11.0 8.9 87 1015.0 7.6 NW 14.5 0.0 2.1
17:34 11.0 8.9 87 1015.1 12.1 NW 14.5 0.0 2.1
17:35 11.0 8.9 87 1015.1 6.9 SW 14.5 0.0 2.1
17:36 11.0 8.9 87 1015.1 12.1 S 14.5 0.0 2.1
17:37 10.9 8.8 87 1015.1 12.1 N 13.0 0.0 2.1
17:39 11.0 8.9 87 1015.0 7.6 NW 13.0 0.0 2.1
17:40 10.9 8.8 87 1015.0 9.8 E 13.0 0.0 2.1
17:41 10.9 8.8 87 1015.1 12.1 N 12.1 0.0 2.1
17:42 11.0 8.9 87 1015.1 13.0 NW 13.0 0.0 2.1
17:43 10.9 8.8 87 1014.9 15.2 NW 15.2 0.0 2.1
17:44 10.9 8.8 87 1015.0 15.2 NW 15.2 0.0 2.1
17:45 11.0 8.9 87 1015.0 9.8 N 15.2 0.0 2.1
17:46 11.0 8.9 87 1015.0 15.2 N 15.2 0.0 2.1
17:47 11.0 8.9 87 1014.8 15.9 N 15.9 0.0 2.1
17:48 11.0 8.9 87 1014.9 10.7 NE 15.9 0.0 2.1
17:49 11.0 8.9 87 1014.8 6.0 NE 15.9 0.0 2.1
17:50 11.0 8.9 87 1015.0 13.0 NW 15.9 0.0 2.1
17:51 11.0 8.9 87 1014.8 9.2 NW 15.9 0.0 2.1
17:52 11.1 9.0 87 1015.0 6.0 NE 15.9 0.0 2.1
17:53 11.1 9.0 87 1014.8 11.4 N 15.9 0.0 2.1
17:54 11.1 9.0 87 1014.9 9.2 SE 15.9 0.0 2.1
17:55 11.1 9.0 87 1015.1 4.5 NE 15.9 0.0 2.1
17:57 11.2 9.1 87 1015.0 8.3 WNW 13.0 0.0 2.1
17:58 11.2 9.1 87 1015.0 6.0 NE 13.0 0.0 2.1
17:59 11.2 9.1 87 1015.0 6.9 N 13.0 0.0 2.1
18:00 11.2 9.1 87 1015.0 6.9 N 12.1 0.0 2.1
18:01 11.2 9.1 87 1015.0 6.9 N 12.1 0.0 2.1
18:02 11.3 9.2 87 1014.9 12.1 SW 12.1 0.0 2.1
18:03 11.3 9.2 87 1015.0 15.2 E 15.2 0.0 2.1
18:04 11.3 9.2 87 1015.0 6.9 NNE 15.2 0.0 2.1
18:06 11.3 9.2 87 1015.0 11.4 NW 15.2 0.0 2.1
18:07 11.3 9.2 87 1015.0 13.6 NW 15.2 0.0 2.1
18:08 11.3 9.2 87 1015.0 11.4 N 15.2 0.0 2.1
18:10 11.3 9.2 87 1015.2 10.7 NE 15.2 0.0 2.1
18:11 11.3 9.2 87 1015.1 4.5 NW 15.2 0.0 2.1
18:12 11.3 9.2 87 1015.1 9.8 NE 15.2 0.0 2.1
18:13 11.3 9.2 87 1015.1 6.0 WNW 15.2 0.0 2.1
18:14 11.3 9.2 87 1015.2 9.8 N 13.6 0.0 2.1
18:15 11.2 9.1 87 1015.0 9.8 NW 13.6 0.0 2.1
18:16 11.2 9.1 87 1015.0 9.8 NW 13.6 0.0 2.1
18:17 11.2 9.1 87 1014.9 9.8 N 12.1 0.0 2.1
18:18 11.2 9.1 87 1014.9 5.4 WSW 12.1 0.0 2.1
18:19 11.2 9.1 87 1015.1 9.2 N 10.7 0.0 2.1
18:20 11.2 9.1 87 1015.2 7.6 N 10.7 0.0 2.1
18:21 11.2 9.1 87 1015.0 7.6 N 11.4 0.0 2.1
18:22 11.2 9.1 87 1015.0 9.8 W 11.4 0.0 2.1
18:23 11.1 8.8 86 1014.9 9.2 NE 11.4 0.0 2.1
18:24 11.1 8.8 86 1015.1 15.2 N 15.2 0.0 2.1
18:27 11.1 8.8 86 1015.1 11.4 E 15.2 0.0 2.1
18:28 11.0 8.8 86 1015.1 8.3 N 15.2 0.0 2.1
18:29 11.0 8.8 86 1015.0 8.3 E 15.2 0.0 2.1
18:30 11.0 8.8 86 1015.0 5.4 N 15.2 0.0 2.1
18:31 11.0 8.8 86 1014.9 6.9 E 15.2 0.0 2.1
18:32 11.0 8.8 86 1015.1 6.9 E 15.2 0.0 2.1
18:33 11.0 8.8 86 1015.0 8.3 NE 15.2 0.0 2.1
18:34 11.0 8.8 86 1015.1 13.6 NW 15.2 0.0 2.1
18:35 11.0 8.8 86 1015.0 10.7 W 15.2 0.0 2.1
18:36 11.0 8.8 86 1015.1 6.9 NE 13.6 0.0 2.1
18:37 10.9 8.7 86 1015.1 4.5 N 13.6 0.0 2.1
18:38 10.9 8.7 86 1015.1 11.4 N 13.6 0.0 2.1
18:39 10.9 8.7 86 1015.0 11.4 N 13.6 0.0 2.1
18:40 10.9 8.7 86 1015.1 11.4 N 13.6 0.0 2.1
18:41 10.9 8.7 86 1015.1 6.9 E 13.6 0.0 2.1
18:42 10.8 8.6 86 1015.0 6.0 S 13.6 0.0 2.1
18:44 10.9 8.7 86 1015.0 7.6 N 11.4 0.0 2.1
18:45 10.9 8.7 86 1015.0 9.8 N 11.4 0.0 2.1
18:46 10.9 8.7 86 1015.2 13.0 N 13.0 0.0 2.1
18:47 10.9 8.7 86 1015.0 7.6 N 13.0 0.0 2.1
18:48 10.8 8.6 86 1015.0 6.0 NNE 13.0 0.0 2.1
18:49 10.8 8.6 86 1015.1 8.3 SW 13.0 0.0 2.1
18:50 10.8 8.6 86 1014.9 6.0 ENE 13.0 0.0 2.1
18:51 10.9 8.7 86 1015.1 11.4 WSW 13.0 0.0 2.1
18:52 10.9 8.7 86 1015.2 10.7 NW 13.0 0.0 2.1
18:53 10.8 8.6 86 1015.1 8.3 N 13.0 0.0 2.1
18:54 10.8 8.6 86 1015.1 9.2 NE 14.5 0.0 2.1
18:55 10.8 8.6 86 1015.0 13.0 N 14.5 0.0 2.1
18:56 10.8 8.6 86 1015.2 9.2 W 14.5 0.0 2.1
18:57 10.8 8.6 86 1015.1 5.4 NE 14.5 0.0 2.1
18:58 10.8 8.6 86 1015.1 6.9 N 14.5 0.0 2.1
18:59 10.8 8.6 86 1015.1 9.2 N 14.5 0.0 2.1
19:00 10.8 8.6 86 1015.0 14.5 NE 14.5 0.0 2.1
19:01 10.8 8.6 86 1015.0 14.5 NE 14.5 0.0 2.1
19:03 10.8 8.6 86 1014.9 6.0 N 14.5 0.0 2.1
19:04 10.8 8.6 86 1014.9 8.3 SW 14.5 0.0 2.1
19:05 10.8 8.6 86 1015.0 4.5 N 14.5 0.0 2.1
19:06 10.8 8.6 86 1015.0 9.2 SE 14.5 0.0 2.1
19:07 10.8 8.6 86 1015.0 11.4 W 14.5 0.0 2.1
19:08 10.8 8.6 86 1015.0 9.8 W 14.5 0.0 2.1
19:09 10.8 8.6 86 1014.9 9.8 W 14.5 0.0 2.1
19:10 10.8 8.6 86 1015.0 9.8 W 14.5 0.0 2.1
19:11 10.8 8.6 86 1015.0 9.8 W 14.5 0.0 2.1
19:12 10.8 8.6 86 1014.9 9.8 W 11.4 0.0 2.1
19:13 10.8 8.6 86 1014.9 9.8 W 11.4 0.0 2.1
19:14 10.8 8.6 86 1015.0 9.8 W 11.4 0.0 2.1
19:15 10.8 8.6 86 1015.1 9.8 W 11.4 0.0 2.1
19:16 10.8 8.6 86 1015.0 9.2 NE 11.4 0.0 2.1
19:17 10.8 8.6 86 1015.1 9.2 NE 11.4 0.0 2.1
19:18 10.8 8.6 86 1015.0 9.2 NE 9.8 0.0 2.1
19:19 10.8 8.6 86 1015.1 9.2 NE 9.8 0.0 2.1
19:20 10.8 8.6 86 1015.1 9.2 NE 9.8 0.0 2.1
19:21 10.8 8.6 86 1015.0 4.5 N 9.8 0.0 2.1
19:22 10.8 8.6 86 1015.1 9.8 SE 9.8 0.0 2.1
19:24 10.8 8.6 86 1015.1 6.0 NW 11.4 0.0 2.1
19:25 10.7 8.5 86 1015.1 11.4 N 11.4 0.0 2.1
19:26 10.8 8.6 86 1015.0 9.2 N 11.4 0.0 2.1
19:27 10.8 8.6 86 1015.0 6.0 E 11.4 0.0 2.1
19:28 10.7 8.5 86 1015.1 10.7 N 11.4 0.0 2.1
19:29 10.7 8.5 86 1015.2 10.7 N 11.4 0.0 2.1
19:30 10.7 8.5 86 1015.2 8.3 NE 11.4 0.0 2.1
19:31 10.7 8.5 86 1015.1 9.2 N 11.4 0.0 2.1
19:32 10.7 8.5 86 1015.1 9.2 N 11.4 0.0 2.1
19:33 10.7 8.5 86 1015.0 9.2 N 11.4 0.0 2.1
19:34 10.7 8.5 86 1015.2 10.7 N 11.4 0.0 2.1
19:35 10.7 8.5 86 1015.2 6.9 N 11.4 0.0 2.1
19:36 10.7 8.5 86 1015.1 6.9 N 10.7 0.0 2.1
19:37 10.7 8.5 86 1015.0 8.3 W 10.7 0.0 2.1
19:38 10.7 8.5 86 1015.1 5.4 WNW 10.7 0.0 2.1
19:39 10.7 8.5 86 1015.2 8.3 N 10.7 0.0 2.1
19:40 10.7 8.5 86 1015.1 6.0 NW 10.7 0.0 2.1
19:41 10.7 8.5 86 1015.2 10.7 NE 10.7 0.0 2.1
19:43 10.6 8.4 86 1015.0 7.6 NE 11.4 0.0 2.1
19:44 10.6 8.4 86 1015.2 9.2 NE 11.4 0.0 2.1
19:45 10.6 8.4 86 1015.3 7.6 N 11.4 0.0 2.1
19:46 10.6 8.4 86 1015.3 13.0 N 13.0 0.0 2.1
19:47 10.6 8.4 86 1015.1 9.8 NW 13.0 0.0 2.1
19:48 10.6 8.4 86 1015.2 10.7 E 13.0 0.0 2.1
19:49 10.6 8.4 86 1015.2 9.8 N 13.0 0.0 2.1
19:50 10.6 8.4 86 1015.2 11.4 N 13.0 0.0 2.1
19:51 10.6 8.4 86 1015.1 5.4 N 13.0 0.0 2.1
19:52 10.6 8.4 86 1015.0 16.8 N 16.8 0.0 2.1
19:53 10.6 8.4 86 1015.3 7.6 NE 16.8 0.0 2.1
19:54 10.6 8.4 86 1015.2 7.6 SW 16.8 0.0 2.1
19:55 10.6 8.4 86 1015.2 9.8 N 16.8 0.0 2.1
19:56 10.6 8.4 86 1015.2 5.4 N 16.8 0.0 2.1
19:57 10.6 8.4 86 1015.2 6.9 N 16.8 0.0 2.1
19:58 10.6 8.4 86 1015.2 6.0 N 16.8 0.0 2.1
19:59 10.6 8.4 86 1015.3 8.3 NW 16.8 0.0 2.1
20:00 10.6 8.4 86 1015.1 8.3 N 16.8 0.0 2.1
20:01 10.6 8.4 86 1015.2 8.3 N 16.8 0.0 2.1
20:02 10.6 8.4 86 1015.1 8.3 N 10.7 0.0 2.1
20:03 10.6 8.4 86 1015.0 8.3 N 10.7 0.0 2.1
20:04 10.6 8.4 86 1015.0 8.3 N 10.7 0.0 2.1
20:05 10.6 8.4 86 1015.3 8.3 N 10.7 0.0 2.1
20:06 10.6 8.4 86 1015.1 8.3 N 10.7 0.0 2.1
20:08 10.6 8.4 86 1015.2 8.3 N 10.7 0.0 2.1
20:09 10.5 8.3 86 1015.2 6.9 NE 8.3 0.0 2.1
20:10 10.5 8.3 86 1015.1 13.0 N 13.0 0.0 2.1
20:11 10.5 8.3 86 1015.2 9.2 NW 13.0 0.0 2.1
20:12 10.5 8.3 86 1015.2 13.0 NW 13.0 0.0 2.1
20:13 10.5 8.3 86 1015.2 9.8 WNW 13.0 0.0 2.1
20:14 10.5 8.3 86 1015.2 9.8 WNW 13.0 0.0 2.1
20:15 10.5 8.3 86 1015.2 6.0 SE 13.0 0.0 2.1
20:16 10.5 8.3 86 1015.1 6.0 SE 13.0 0.0 2.1
20:17 10.5 8.3 86 1015.1 10.7 E 13.0 0.0 2.1
20:18 10.5 8.3 86 1015.2 10.7 E 13.0 0.0 2.1
20:19 10.5 8.3 86 1015.1 10.7 E 13.0 0.0 2.1
20:20 10.5 8.3 86 1015.2 10.7 E 13.0 0.0 2.1
20:21 10.5 8.3 86 1015.1 10.7 E 13.0 0.0 2.1
20:22 10.5 8.3 86 1015.0 9.2 NE 13.0 0.0 2.1
20:24 10.5 8.3 86 1015.2 9.8 N 10.7 0.0 2.1
20:25 10.5 8.3 86 1015.2 11.4 N 11.4 0.0 2.1
20:26 10.5 8.3 86 1015.2 9.2 NE 11.4 0.0 2.1
20:27 10.5 8.3 86 1015.1 7.6 W 11.4 0.0 2.1
20:28 10.5 8.3 86 1015.3 6.9 N 11.4 0.0 2.1
20:29 10.5 8.3 86 1015.1 11.4 N 11.4 0.0 2.1
20:30 10.5 8.3 86 1015.2 5.4 N 11.4 0.0 2.1
20:31 10.5 8.3 86 1015.0 6.9 N 11.4 0.0 2.1
20:32 10.5 8.3 86 1015.1 9.2 NE 11.4 0.0 2.1
20:33 10.5 8.3 86 1015.2 7.6 NE 11.4 0.0 2.1
20:34 10.5 8.3 86 1015.2 7.6 NE 11.4 0.0 2.1
20:35 10.5 8.3 86 1015.2 9.8 N 11.4 0.0 2.1
20:36 10.5 8.3 86 1015.2 6.0 N 11.4 0.0 2.1
20:37 10.5 8.3 86 1015.2 4.5 N 11.4 0.0 2.1
20:38 10.5 8.3 86 1015.4 3.8 SE 11.4 0.0 2.1
20:40 10.5 8.3 86 1015.2 3.8 N 9.8 0.0 2.1
20:41 10.5 8.3 86 1015.2 5.4 NE 9.8 0.0 2.1
20:42 10.5 8.3 86 1015.2 2.2 NE 9.8 0.0 2.1
20:43 10.4 8.2 86 1015.2 9.2 NE 9.8 0.0 2.1
20:44 10.5 8.3 86 1015.1 6.9 NE 9.8 0.0 2.1
20:45 10.4 8.2 86 1015.2 8.3 NW 9.2 0.0 2.1
20:46 10.4 8.2 86 1015.0 5.4 N 9.2 0.0 2.1
20:47 10.4 8.2 86 1015.0 5.4 N 9.2 0.0 2.1
20:48 10.4 8.2 86 1015.2 5.4 N 9.2 0.0 2.1
20:49 10.4 8.2 86 1015.0 6.9 N 9.2 0.0 2.1
20:50 10.5 8.3 86 1015.1 6.9 E 9.2 0.0 2.1
20:51 10.4 8.2 86 1015.3 4.5 N 9.2 0.0 2.1
20:52 10.4 8.2 86 1015.2 9.2 N 9.2 0.0 2.1
20:53 10.4 8.2 86 1015.0 3.8 NNE 9.2 0.0 2.1
20:54 10.4 8.2 86 1015.1 9.8 N 9.8 0.0 2.1
20:55 10.4 8.2 86 1015.2 6.0 NW 9.8 0.0 2.1
20:56 10.4 8.2 86 1015.2 9.2 NW 9.8 0.0 2.1
20:57 10.4 8.2 86 1015.2 7.6 N 9.8 0.0 2.1
20:59 10.4 8.2 86 1015.1 5.4 N 9.8 0.0 2.1
21:00 10.4 8.2 86 1015.3 5.4 N 9.8 0.0 2.1
21:01 10.4 8.2 86 1015.2 5.4 N 9.8 0.0 2.1
21:02 10.4 8.2 86 1015.1 5.4 N 9.8 0.0 2.1
21:03 10.4 8.2 86 1015.3 5.4 N 9.8 0.0 2.1
21:04 10.4 8.2 86 1015.1 5.4 N 9.2 0.0 2.1
21:05 10.4 8.2 86 1015.1 5.4 N 9.2 0.0 2.1
21:06 10.4 8.2 86 1015.2 8.3 N 12.1 0.0 2.1
21:07 10.4 8.2 86 1015.1 6.0 N 12.1 0.0 2.1
21:08 10.4 8.2 86 1015.1 6.0 N 12.1 0.0 2.1
21:09 10.4 8.2 86 1015.2 7.6 NE 12.1 0.0 2.1
21:10 10.4 8.2 86 1015.3 11.4 NE 12.1 0.0 2.1
21:11 10.4 8.2 86 1015.3 5.4 N 12.1 0.0 2.1
21:12 10.4 8.2 86 1015.2 9.8 N 12.1 0.0 2.1
21:13 10.4 8.2 86 1015.3 4.5 N 12.1 0.0 2.1
21:14 10.4 8.2 86 1015.3 6.9 N 12.1 0.0 2.1
21:15 10.4 8.2 86 1015.3 5.4 NE 12.1 0.0 2.1
21:16 10.4 8.2 86 1015.3 3.8 NE 12.1 0.0 2.1
21:17 10.4 8.2 86 1015.2 6.0 NW 11.4 0.0 2.1
21:18 10.4 8.2 86 1015.4 11.4 NW 11.4 0.0 2.1
21:19 10.4 8.2 86 1015.4 9.2 N 11.4 0.0 2.1
21:20 10.4 8.2 86 1015.2 3.1 NW 11.4 0.0 2.1
21:22 10.4 8.2 86 1015.1 9.2 NE 11.4 0.0 2.1
21:23 10.4 8.2 86 1015.4 6.0 NE 11.4 0.0 2.1
21:24 10.4 8.2 86 1015.3 1.6 SW 11.4 0.0 2.1
21:25 10.4 8.2 86 1015.4 6.0 NE 11.4 0.0 2.1
21:26 10.3 8.1 86 1015.4 9.2 NE 11.4 0.0 2.1
21:27 10.3 8.1 86 1015.4 9.2 NE 11.4 0.0 2.1
21:28 10.3 8.1 86 1015.3 8.3 N 11.4 0.0 2.1
21:29 10.3 8.1 86 1015.1 6.0 E 9.8 0.0 2.1
21:30 10.3 8.1 86 1015.2 4.5 E 9.8 0.0 2.1
21:31 10.3 8.1 86 1015.2 9.2 N 9.8 0.0 2.1
21:32 10.3 8.1 86 1015.2 6.9 N 9.2 0.0 2.1
21:33 10.3 8.1 86 1015.3 3.8 NW 9.2 0.0 2.1
21:34 10.3 8.1 86 1015.2 3.1 NE 9.2 0.0 2.1
21:35 10.3 8.1 86 1015.2 3.1 NE 9.2 0.0 2.1
21:36 10.3 8.1 86 1015.2 9.2 N 9.2 0.0 2.1
21:37 10.3 8.1 86 1015.2 9.2 WNW 9.2 0.0 2.1
21:39 10.3 8.1 86 1015.1 8.3 N 9.2 0.0 2.1
21:40 10.3 8.1 86 1015.1 6.9 ENE 9.2 0.0 2.1
21:41 10.3 8.1 86 1015.0 6.9 NW 9.2 0.0 2.1
21:42 10.3 8.1 86 1015.2 6.0 SW 9.2 0.0 2.1
21:43 10.3 8.1 86 1015.2 6.0 SW 9.2 0.0 2.1
21:44 10.3 8.1 86 1015.3 0.7 N 9.2 0.0 2.1
21:45 10.3 8.1 86 1015.1 10.7 N 10.7 0.0 2.1
21:46 10.3 8.1 86 1015.3 6.0 NW 10.7 0.0 2.1
21:47 10.3 8.1 86 1015.3 6.9 NW 10.7 0.0 2.1
21:48 10.3 8.1 86 1015.2 3.1 NE 10.7 0.0 2.1
21:49 10.3 8.1 86 1015.3 7.6 NW 10.7 0.0 2.1
21:50 10.3 8.1 86 1015.2 7.6 N 10.7 0.0 2.1
21:51 10.3 8.1 86 1015.2 6.9 N 10.7 0.0 2.1
21:52 10.3 8.1 86 1015.4 3.1 SW 10.7 0.0 2.1
21:53 10.3 8.1 86 1015.2 7.6 NE 10.7 0.0 2.1
21:55 10.3 8.1 86 1015.1 6.9 N 10.7 0.0 2.1
21:56 10.3 8.1 86 1015.2 6.9 N 7.6 0.0 2.1
21:57 10.3 8.1 86 1015.1 9.2 NE 10.7 0.0 2.1
21:58 10.3 8.1 86 1015.1 10.7 NW 10.7 0.0 2.1
21:59 10.3 8.1 86 1015.3 4.5 NW 10.7 0.0 2.1
22:01 10.3 8.1 86 1015.4 8.3 NE 10.7 0.0 2.1
22:02 10.3 8.1 86 1015.3 8.3 NE 10.7 0.0 2.1
22:03 10.3 8.1 86 1015.3 8.3 NE 10.7 0.0 2.1
22:04 10.3 8.1 86 1015.4 8.3 NE 10.7 0.0 2.1
22:05 10.3 8.1 86 1015.3 8.3 NE 10.7 0.0 2.1
22:06 10.3 8.1 86 1015.4 8.3 NE 10.7 0.0 2.1
22:08 10.3 8.1 86 1015.3 6.0 NW 8.3 0.0 2.1
22:10 10.3 8.1 86 1015.5 10.7 N 10.7 0.0 2.1
22:11 10.3 8.1 86 1015.3 5.4 NW 10.7 0.0 2.1
22:12 10.2 8.0 86 1015.5 3.8 N 10.7 0.0 2.1
22:13 10.3 8.1 86 1015.4 9.2 NW 10.7 0.0 2.1
22:14 10.2 8.0 86 1015.3 8.3 N 10.7 0.0 2.1
22:15 10.2 8.0 86 1015.5 6.0 N 10.7 0.0 2.1
22:16 10.2 8.0 86 1015.4 3.1 NE 10.7 0.0 2.1
22:17 10.2 8.0 86 1015.4 2.2 NW 10.7 0.0 2.1
22:18 10.2 8.0 86 1015.4 6.0 NW 10.7 0.0 2.1
22:19 10.2 8.0 86 1015.3 6.0 NE 10.7 0.0 2.1
22:20 10.3 8.1 86 1015.3 6.0 N 9.2 0.0 2.1
22:21 10.2 8.0 86 1015.4 4.5 SW 9.2 0.0 2.1
22:22 10.2 8.0 86 1015.2 6.9 N 9.2 0.0 2.1
22:23 10.2 8.0 86 1015.4 5.4 NNE 8.3 0.0 2.1
22:24 10.2 8.0 86 1015.3 6.0 NW 6.9 0.0 2.1
22:26 10.2 8.0 86 1015.3 7.6 N 7.6 0.0 2.1
22:27 10.2 8.0 86 1015.2 7.6 ENE 7.6 0.0 2.1
22:28 10.2 8.0 86 1015.2 9.2 N 9.2 0.0 2.1
22:29 10.2 8.0 86 1015.1 3.8 N 9.2 0.0 2.1
22:30 10.2 8.0 86 1015.3 1.6 W 9.2 0.0 2.1
22:31 10.2 8.0 86 1015.3 1.6 W 9.2 0.0 2.1
22:32 10.2 8.0 86 1015.4 7.6 WNW 9.2 0.0 2.1
22:33 10.2 8.0 86 1015.4 6.0 W 9.2 0.0 2.1
22:34 10.2 8.0 86 1015.1 2.2 NE 9.2 0.0 2.1
22:35 10.2 8.0 86 1015.2 6.0 E 9.2 0.0 2.1
22:36 10.2 8.0 86 1015.3 9.2 N 9.2 0.0 2.1
22:37 10.2 8.0 86 1015.3 6.9 NE 9.2 0.0 2.1
22:38 10.2 8.0 86 1015.2 6.9 W 9.2 0.0 2.1
22:39 10.2 8.0 86 1015.3 6.0 WNW 9.2 0.0 2.1
22:40 10.2 8.0 86 1015.1 5.4 NE 9.2 0.0 2.1
22:41 10.2 8.0 86 1015.1 5.4 NE 9.2 0.0 2.1
22:42 10.2 8.0 86 1015.3 3.8 N 9.2 0.0 2.1
22:43 10.2 8.0 86 1015.3 3.8 NW 9.2 0.0 2.1
22:44 10.2 8.0 86 1015.2 0.0 NW 9.2 0.0 2.1
22:45 10.2 8.0 86 1015.3 0.0 N 9.2 0.0 2.1
22:46 10.2 8.0 86 1015.3 3.8 N 7.6 0.0 2.1
22:48 10.2 8.0 86 1015.2 4.5 N 7.6 0.0 2.1
22:49 10.2 8.0 86 1015.1 2.2 W 7.6 0.0 2.1
22:50 10.2 8.0 86 1015.1 0.0 N 7.6 0.0 2.1
22:51 10.2 8.0 86 1015.1 6.0 WNW 6.9 0.0 2.1
22:52 10.2 8.0 86 1015.1 3.1 N 6.9 0.0 2.1
22:53 10.2 8.0 86 1015.1 3.1 N 6.9 0.0 2.1
22:54 10.2 8.0 86 1015.3 4.5 NW 6.9 0.0 2.1
22:55 10.2 8.0 86 1015.3 4.5 NW 6.9 0.0 2.1
22:56 10.2 8.0 86 1015.3 8.3 N 8.3 0.0 2.1
22:57 10.2 8.0 86 1015.3 10.7 NE 10.7 0.0 2.1
22:58 10.2 8.0 86 1015.2 3.8 N 10.7 0.0 2.1
22:59 10.2 8.0 86 1015.1 8.3 N 10.7 0.0 2.1
23:00 10.2 8.0 86 1015.2 9.2 N 10.7 0.0 2.1
23:01 10.2 8.0 86 1015.2 9.2 N 10.7 0.0 2.1
23:02 10.2 8.0 86 1015.2 9.2 N 10.7 0.0 2.1
23:03 10.2 8.0 86 1015.1 9.2 N 10.7 0.0 2.1
23:04 10.2 8.0 86 1015.1 9.2 N 10.7 0.0 2.1
23:05 10.2 8.0 86 1015.2 9.2 N 10.7 0.0 2.1
23:06 10.2 8.0 86 1015.1 2.2 NW 10.7 0.0 2.1
23:07 10.2 8.0 86 1015.0 5.4 N 9.2 0.0 2.1
23:08 10.2 8.0 86 1015.2 2.2 NW 9.2 0.0 2.1
23:10 10.2 8.0 86 1015.1 8.3 N 9.2 0.0 2.1
23:11 10.2 8.0 86 1015.1 5.4 N 9.2 0.0 2.1
23:12 10.2 8.0 86 1015.2 3.1 NE 9.2 0.0 2.1
23:13 10.2 8.0 86 1015.0 8.3 N 9.2 0.0 2.1
23:14 10.2 8.0 86 1015.1 11.4 N 11.4 0.0 2.1
23:15 10.2 8.0 86 1015.0 5.4 N 11.4 0.0 2.1
23:16 10.2 8.0 86 1015.2 4.5 N 11.4 0.0 2.1
23:17 10.2 8.0 86 1015.0 6.9 NW 11.4 0.0 2.1
23:18 10.2 8.0 86 1015.2 4.5 NW 11.4 0.0 2.1
23:19 10.2 8.0 86 1015.1 2.2 W 11.4 0.0 2.1
23:20 10.2 8.0 86 1015.1 5.4 N 11.4 0.0 2.1
23:21 10.2 8.0 86 1015.1 5.4 N 11.4 0.0 2.1
23:22 10.2 8.0 86 1015.1 4.5 ENE 11.4 0.0 2.1
23:23 10.2 8.0 86 1015.0 7.6 NW 11.4 0.0 2.1
23:24 10.2 8.0 86 1015.1 3.8 N 11.4 0.0 2.1
23:25 10.2 8.0 86 1015.0 5.4 N 8.3 0.0 2.1
23:26 10.2 8.0 86 1015.0 9.2 NW 9.2 0.0 2.1
23:27 10.2 8.0 86 1014.9 8.3 N 9.2 0.0 2.1
23:28 10.2 8.0 86 1015.0 6.0 NE 9.2 0.0 2.1
23:29 10.2 8.0 86 1014.9 6.0 NE 9.2 0.0 2.1
23:30 10.2 8.0 86 1015.0 5.4 NE 9.2 0.0 2.1
23:31 10.2 8.0 86 1014.9 3.1 N 9.2 0.0 2.1
23:32 10.2 8.0 86 1015.0 0.7 NE 9.2 0.0 2.1
23:33 10.3 8.1 86 1014.9 7.6 N 9.2 0.0 2.1
23:35 10.2 8.0 86 1014.9 6.0 N 9.2 0.0 2.1
23:36 10.3 8.1 86 1014.9 3.8 N 8.3 0.0 2.1
23:37 10.3 8.1 86 1014.9 6.0 WNW 8.3 0.0 2.1
23:38 10.2 8.0 86 1014.9 6.0 N 7.6 0.0 2.1
23:39 10.2 8.0 86 1014.7 6.0 N 7.6 0.0 2.1
23:40 10.2 8.0 86 1014.9 7.6 N 7.6 0.0 2.1
23:41 10.3 8.1 86 1014.9 5.4 WSW 7.6 0.0 2.1
23:42 10.2 8.0 86 1014.9 8.3 N 8.3 0.0 2.1
23:43 10.2 8.0 86 1015.0 5.4 NE 8.3 0.0 2.1
23:44 10.3 8.1 86 1014.7 8.3 NW 8.3 0.0 2.1
23:45 10.3 8.1 86 1014.9 3.8 NNE 8.3 0.0 2.1
23:46 10.3 8.1 86 1014.9 6.9 NW 8.3 0.0 2.1
23:47 10.2 8.0 86 1015.0 6.0 NW 8.3 0.0 2.1
23:48 10.3 8.1 86 1014.8 2.2 NW 8.3 0.0 2.1
23:49 10.2 8.0 86 1014.7 7.6 N 8.3 0.0 2.1
23:50 10.3 8.1 86 1015.0 4.5 NE 8.3 0.0 2.1
23:51 10.2 8.0 86 1014.8 9.2 NW 9.2 0.0 2.1
23:52 10.3 8.1 86 1014.9 4.5 W 9.2 0.0 2.1
23:53 10.2 8.0 86 1014.7 10.7 N 10.7 0.0 2.1
23:55 10.2 8.0 86 1014.8 3.8 NW 10.7 0.0 2.1
23:56 10.3 8.1 86 1014.8 6.9 NW 10.7 0.0 2.1
23:57 10.3 8.1 86 1015.0 9.8 N 10.7 0.0 2.1
23:58 10.2 8.0 86 1014.9 5.4 NW 10.7 0.0 2.1
23:59 10.2 8.0 86 1014.9 5.4 N 10.7 0.0 2.1

UK - WEATHER STATION TOPSITES - UK World Weather Websites

This is a private weather station, never base important decisions or events on data from this weather station. Although every effort has been made to make the data as accurate as possible it does not meet MetOffice standards. It is proved as a guide of local weather conditions. We accept no liability for any loss which may arise from use of the data.

Copyright © Carnkie Weather 2009 - 2019.